Time,TemperatureF,DewpointF,PressureIn,WindDirection,WindDirectionDegrees,WindSpeedMPH,WindSpeedGustMPH,Humidity,HourlyPrecipIn,Conditions,Clouds,dailyrainin,SolarRadiationWatts/m^2,SoftwareType,DateUTC
2013-02-12 00:02:00,46.9,23.3,30.20,West,281,3.0,3.0,39,0.00,,,0.00,0,WeatherHawk,2013-02-12 07:02:00,
2013-02-12 00:03:00,46.9,23.3,30.20,WNW,288,4.0,4.0,39,0.00,,,0.00,0,WeatherHawk,2013-02-12 07:03:00,
2013-02-12 00:04:00,47.1,23.4,30.20,WNW,287,4.0,4.0,39,0.00,,,0.00,0,WeatherHawk,2013-02-12 07:04:00,
2013-02-12 00:06:00,47.1,23.4,30.20,West,271,4.0,4.0,39,0.00,,,0.00,0,WeatherHawk,2013-02-12 07:06:00,
2013-02-12 00:08:00,47.1,23.4,30.20,West,274,3.0,3.0,39,0.00,,,0.00,0,WeatherHawk,2013-02-12 07:08:00,
2013-02-12 00:09:00,47.1,24.1,30.20,WNW,288,3.0,5.0,40,0.00,,,0.00,0,WeatherHawk,2013-02-12 07:09:00,
2013-02-12 00:13:00,46.8,24.3,30.20,West,276,4.0,-999.0,41,0.00,,,0.00,0,WeatherHawk,2013-02-12 07:13:00,
2013-02-12 00:14:00,46.6,24.2,30.20,West,279,5.0,5.0,41,0.00,,,0.00,0,WeatherHawk,2013-02-12 07:14:00,
2013-02-12 00:16:00,46.4,24.6,30.20,West,277,4.0,5.0,42,0.00,,,0.00,0,WeatherHawk,2013-02-12 07:16:00,
2013-02-12 00:18:00,46.2,24.4,30.20,WNW,285,4.0,5.0,42,0.00,,,0.00,0,WeatherHawk,2013-02-12 07:18:00,
2013-02-12 00:20:00,46.0,24.2,30.20,West,281,4.0,5.0,42,0.00,,,0.00,0,WeatherHawk,2013-02-12 07:20:00,
2013-02-12 00:23:00,46.0,23.7,30.20,WNW,283,4.0,5.0,41,0.00,,,0.00,0,WeatherHawk,2013-02-12 07:23:00,
2013-02-12 00:25:00,46.0,24.2,30.20,WNW,289,3.0,5.0,42,0.00,,,0.00,0,WeatherHawk,2013-02-12 07:25:00,
2013-02-12 00:28:00,46.0,23.7,30.20,WNW,291,3.0,5.0,41,0.00,,,0.00,0,WeatherHawk,2013-02-12 07:28:00,
2013-02-12 00:29:00,46.0,23.7,30.20,WNW,285,3.0,0.0,41,0.00,,,0.00,0,WeatherHawk,2013-02-12 07:29:00,
2013-02-12 00:32:00,46.2,23.2,30.21,WNW,291,3.0,0.0,40,0.00,,,0.00,1,WeatherHawk,2013-02-12 07:32:00,
2013-02-12 00:33:00,46.2,23.2,30.21,WNW,294,3.0,0.0,40,0.00,,,0.00,0,WeatherHawk,2013-02-12 07:33:00,
2013-02-12 00:34:00,46.2,23.2,30.21,WNW,289,3.0,0.0,40,0.00,,,0.00,0,WeatherHawk,2013-02-12 07:34:00,
2013-02-12 00:35:00,46.2,23.2,30.21,WNW,288,3.0,0.0,40,0.00,,,0.00,0,WeatherHawk,2013-02-12 07:35:00,
2013-02-12 00:38:00,46.2,23.8,30.21,WNW,292,2.0,0.0,41,0.00,,,0.00,1,WeatherHawk,2013-02-12 07:38:00,
2013-02-12 00:40:00,46.2,23.8,30.21,WNW,283,3.0,3.0,41,0.00,,,0.00,0,WeatherHawk,2013-02-12 07:40:00,
2013-02-12 00:41:00,46.0,23.7,30.21,WNW,282,3.0,3.0,41,0.00,,,0.00,0,WeatherHawk,2013-02-12 07:41:00,
2013-02-12 00:42:00,46.0,23.7,30.21,WNW,287,3.0,3.0,41,0.00,,,0.00,1,WeatherHawk,2013-02-12 07:42:00,
2013-02-12 00:46:00,46.0,23.7,30.21,WNW,283,3.0,3.0,41,0.00,,,0.00,0,WeatherHawk,2013-02-12 07:46:00,
2013-02-12 00:47:00,46.0,23.7,30.21,WNW,288,3.0,3.0,41,0.00,,,0.00,0,WeatherHawk,2013-02-12 07:47:00,
2013-02-12 00:48:00,46.0,23.7,30.21,WNW,295,3.0,3.0,41,0.00,,,0.00,0,WeatherHawk,2013-02-12 07:48:00,
2013-02-12 00:52:00,45.9,23.5,30.21,NW,308,3.0,0.0,41,0.00,,,0.00,0,WeatherHawk,2013-02-12 07:52:00,
2013-02-12 00:53:00,45.9,23.5,30.21,NW,306,3.0,0.0,41,0.00,,,0.00,0,WeatherHawk,2013-02-12 07:53:00,
2013-02-12 00:54:00,45.9,23.5,30.21,NW,305,3.0,0.0,41,0.00,,,0.00,0,WeatherHawk,2013-02-12 07:54:00,
2013-02-12 00:57:00,45.9,23.5,30.21,WNW,300,3.0,0.0,41,0.00,,,0.00,1,WeatherHawk,2013-02-12 07:57:00,
2013-02-12 00:58:00,45.9,23.5,30.21,WNW,299,3.0,0.0,41,0.00,,,0.00,0,WeatherHawk,2013-02-12 07:58:00,
2013-02-12 00:59:00,45.9,23.5,30.21,WNW,295,3.0,0.0,41,0.00,,,0.00,0,WeatherHawk,2013-02-12 07:59:00,
2013-02-12 01:02:00,45.9,23.5,30.21,WNW,291,3.0,3.0,41,0.00,,,0.00,0,WeatherHawk,2013-02-12 08:02:00,
2013-02-12 01:05:00,45.9,24.1,30.21,WNW,285,3.0,3.0,42,0.00,,,0.00,0,WeatherHawk,2013-02-12 08:05:00,
2013-02-12 01:08:00,45.7,23.9,30.21,WNW,290,4.0,4.0,42,0.00,,,0.00,0,WeatherHawk,2013-02-12 08:08:00,
2013-02-12 01:12:00,45.7,23.3,30.21,WNW,297,3.0,0.0,41,0.00,,,0.00,1,WeatherHawk,2013-02-12 08:12:00,
2013-02-12 01:13:00,45.7,23.3,30.21,WNW,297,3.0,0.0,41,0.00,,,0.00,1,WeatherHawk,2013-02-12 08:13:00,
2013-02-12 01:15:00,45.7,23.3,30.21,NW,304,3.0,0.0,41,0.00,,,0.00,0,WeatherHawk,2013-02-12 08:15:00,
2013-02-12 01:16:00,45.7,23.3,30.21,WNW,300,3.0,0.0,41,0.00,,,0.00,0,WeatherHawk,2013-02-12 08:16:00,
2013-02-12 01:18:00,45.9,23.5,30.21,WNW,303,4.0,0.0,41,0.00,,,0.00,0,WeatherHawk,2013-02-12 08:18:00,
2013-02-12 01:20:00,45.9,22.9,30.21,NW,308,3.0,4.0,40,0.00,,,0.00,1,WeatherHawk,2013-02-12 08:20:00,
2013-02-12 01:21:00,46.0,23.1,30.21,NW,309,3.0,4.0,40,0.00,,,0.00,0,WeatherHawk,2013-02-12 08:21:00,
2013-02-12 01:22:00,46.0,23.1,30.21,NW,313,3.0,4.0,40,0.00,,,0.00,0,WeatherHawk,2013-02-12 08:22:00,
2013-02-12 01:23:00,46.0,23.1,30.21,NW,308,3.0,4.0,40,0.00,,,0.00,0,WeatherHawk,2013-02-12 08:23:00,
2013-02-12 01:28:00,45.9,22.9,30.21,NW,311,3.0,4.0,40,0.00,,,0.00,0,WeatherHawk,2013-02-12 08:28:00,
2013-02-12 01:29:00,45.9,23.5,30.21,NW,312,3.0,4.0,41,0.00,,,0.00,1,WeatherHawk,2013-02-12 08:29:00,
2013-02-12 01:33:00,45.9,23.5,30.21,NW,318,3.0,4.0,41,0.00,,,0.00,0,WeatherHawk,2013-02-12 08:33:00,
2013-02-12 01:35:00,45.7,23.9,30.21,NW,319,2.0,4.0,42,0.00,,,0.00,0,WeatherHawk,2013-02-12 08:35:00,
2013-02-12 01:38:00,45.3,24.2,30.21,NNW,341,2.0,4.0,43,0.00,,,0.00,0,WeatherHawk,2013-02-12 08:38:00,
2013-02-12 01:41:00,45.3,23.0,30.21,NNW,347,3.0,0.0,41,0.00,,,0.00,0,WeatherHawk,2013-02-12 08:41:00,
2013-02-12 01:43:00,45.7,22.2,30.21,NNW,340,3.0,0.0,39,0.00,,,0.00,0,WeatherHawk,2013-02-12 08:43:00,
2013-02-12 01:48:00,46.8,21.9,30.21,NW,325,3.0,0.0,37,0.00,,,0.00,0,WeatherHawk,2013-02-12 08:48:00,
2013-02-12 01:53:00,46.8,21.9,30.21,NW,320,3.0,0.0,37,0.00,,,0.00,0,WeatherHawk,2013-02-12 08:53:00,
2013-02-12 01:56:00,46.8,22.5,30.21,NW,317,3.0,0.0,38,0.00,,,0.00,0,WeatherHawk,2013-02-12 08:56:00,
2013-02-12 01:58:00,46.6,22.3,30.21,NW,312,4.0,0.0,38,0.00,,,0.00,0,WeatherHawk,2013-02-12 08:58:00,
2013-02-12 01:59:00,46.6,23.0,30.21,NW,307,4.0,4.0,39,0.00,,,0.00,1,WeatherHawk,2013-02-12 08:59:00,
2013-02-12 02:01:00,46.2,22.6,30.21,WNW,302,4.0,4.0,39,0.00,,,0.00,0,WeatherHawk,2013-02-12 09:01:00,
2013-02-12 02:07:00,45.7,22.8,30.21,NW,319,4.0,4.0,40,0.00,,,0.00,0,WeatherHawk,2013-02-12 09:07:00,
2013-02-12 02:08:00,45.7,23.3,30.21,NNW,340,3.0,4.0,41,0.00,,,0.00,0,WeatherHawk,2013-02-12 09:08:00,
2013-02-12 02:09:00,45.3,23.0,30.21,North,354,5.0,0.0,41,0.00,,,0.00,0,WeatherHawk,2013-02-12 09:09:00,
2013-02-12 02:12:00,45.1,22.3,30.21,North,350,5.0,0.0,40,0.00,,,0.00,0,WeatherHawk,2013-02-12 09:12:00,
2013-02-12 02:13:00,45.1,22.3,30.21,North,350,5.0,-999.0,40,0.00,,,0.00,0,WeatherHawk,2013-02-12 09:13:00,
2013-02-12 02:18:00,45.3,22.4,30.21,NNW,340,4.0,0.0,40,0.00,,,0.00,0,WeatherHawk,2013-02-12 09:18:00,
2013-02-12 02:20:00,45.3,21.8,30.21,NNW,327,4.0,5.0,39,0.00,,,0.00,0,WeatherHawk,2013-02-12 09:20:00,
2013-02-12 02:25:00,45.1,21.7,30.21,NNW,337,4.0,5.0,39,0.00,,,0.00,0,WeatherHawk,2013-02-12 09:25:00,
2013-02-12 02:26:00,45.1,21.7,30.21,NNW,339,4.0,5.0,39,0.00,,,0.00,0,WeatherHawk,2013-02-12 09:26:00,
2013-02-12 02:28:00,45.1,22.3,30.21,NNW,341,4.0,-999.0,40,0.00,,,0.00,0,WeatherHawk,2013-02-12 09:28:00,
2013-02-12 02:32:00,45.1,22.3,30.21,North,349,3.0,5.0,40,0.00,,,0.00,0,WeatherHawk,2013-02-12 09:32:00,
2013-02-12 02:33:00,45.0,23.8,30.21,NNE,29,2.0,5.0,43,0.00,,,0.00,0,WeatherHawk,2013-02-12 09:33:00,
2013-02-12 02:35:00,43.9,23.4,30.20,NE,41,2.0,5.0,44,0.00,,,0.00,1,WeatherHawk,2013-02-12 09:35:00,
2013-02-12 02:37:00,43.3,23.4,30.20,NE,43,2.0,5.0,45,0.00,,,0.00,1,WeatherHawk,2013-02-12 09:37:00,
2013-02-12 02:41:00,42.8,23.5,30.20,NNE,24,3.0,0.0,46,0.00,,,0.00,0,WeatherHawk,2013-02-12 09:41:00,
2013-02-12 02:43:00,42.8,23.5,30.20,NE,35,3.0,0.0,46,0.00,,,0.00,0,WeatherHawk,2013-02-12 09:43:00,
2013-02-12 02:44:00,42.8,24.0,30.20,NE,38,3.0,0.0,47,0.00,,,0.00,0,WeatherHawk,2013-02-12 09:44:00,
2013-02-12 02:48:00,43.0,24.1,30.20,North,11,2.0,0.0,47,0.00,,,0.00,0,WeatherHawk,2013-02-12 09:48:00,
2013-02-12 02:53:00,42.3,23.0,30.20,North,1,3.0,-999.0,46,0.00,,,0.00,0,WeatherHawk,2013-02-12 09:53:00,
2013-02-12 02:58:00,43.5,22.5,30.20,NNE,12,2.0,0.0,43,0.00,,,0.00,0,WeatherHawk,2013-02-12 09:58:00,
2013-02-12 02:59:00,43.5,23.1,30.20,North,10,2.0,0.0,44,0.00,,,0.00,0,WeatherHawk,2013-02-12 09:59:00,
2013-02-12 03:00:00,43.3,22.4,30.20,North,0,2.0,0.0,43,0.00,,,0.00,0,WeatherHawk,2013-02-12 10:00:00,
2013-02-12 03:05:00,43.7,22.1,30.20,NE,53,2.0,0.0,42,0.00,,,0.00,0,WeatherHawk,2013-02-12 10:05:00,
2013-02-12 03:06:00,43.7,21.6,30.20,NNE,32,3.0,0.0,41,0.00,,,0.00,0,WeatherHawk,2013-02-12 10:06:00,
2013-02-12 03:08:00,43.9,21.7,30.20,NE,43,3.0,0.0,41,0.00,,,0.00,0,WeatherHawk,2013-02-12 10:08:00,
2013-02-12 03:11:00,44.2,21.5,30.20,ENE,57,3.0,3.0,40,0.00,,,0.00,1,WeatherHawk,2013-02-12 10:11:00,
2013-02-12 03:13:00,44.2,23.7,30.20,ENE,67,4.0,4.0,44,0.00,,,0.00,1,WeatherHawk,2013-02-12 10:13:00,
2013-02-12 03:16:00,43.2,23.8,30.20,ENE,73,3.0,3.0,46,0.00,,,0.00,0,WeatherHawk,2013-02-12 10:16:00,
2013-02-12 03:17:00,42.4,24.2,30.20,ENE,71,4.0,4.0,48,0.00,,,0.00,0,WeatherHawk,2013-02-12 10:17:00,
2013-02-12 03:18:00,42.4,24.2,30.20,ENE,71,4.0,4.0,48,0.00,,,0.00,0,WeatherHawk,2013-02-12 10:18:00,
2013-02-12 03:20:00,41.9,23.2,30.21,NE,48,3.0,0.0,47,0.00,,,0.00,0,WeatherHawk,2013-02-12 10:20:00,
2013-02-12 03:21:00,41.9,23.7,30.21,NE,38,2.0,0.0,48,0.00,,,0.00,0,WeatherHawk,2013-02-12 10:21:00,
2013-02-12 03:23:00,41.9,23.2,30.21,NE,39,2.0,0.0,47,0.00,,,0.00,0,WeatherHawk,2013-02-12 10:23:00,
2013-02-12 03:26:00,42.1,23.8,30.21,ESE,121,2.0,0.0,48,0.00,,,0.00,0,WeatherHawk,2013-02-12 10:26:00,
2013-02-12 03:27:00,41.7,24.9,30.21,SSE,160,4.0,0.0,51,0.00,,,0.00,0,WeatherHawk,2013-02-12 10:27:00,
2013-02-12 03:29:00,40.8,25.0,30.21,SSE,155,4.0,0.0,53,0.00,,,0.00,0,WeatherHawk,2013-02-12 10:29:00,
2013-02-12 03:32:00,39.6,26.4,30.21,South,176,4.0,0.0,59,0.00,,,0.00,0,WeatherHawk,2013-02-12 10:32:00,
2013-02-12 03:33:00,39.2,26.1,30.21,South,181,4.0,0.0,59,0.00,,,0.00,0,WeatherHawk,2013-02-12 10:33:00,
2013-02-12 03:36:00,39.9,25.1,30.21,South,174,2.0,0.0,55,0.00,,,0.00,0,WeatherHawk,2013-02-12 10:36:00,
2013-02-12 03:37:00,40.1,25.7,30.21,ESE,119,3.0,0.0,56,0.00,,,0.00,0,WeatherHawk,2013-02-12 10:37:00,
2013-02-12 03:39:00,39.4,26.7,30.21,ESE,102,4.0,6.0,60,0.00,,,0.00,1,WeatherHawk,2013-02-12 10:39:00,
2013-02-12 03:42:00,39.0,25.9,30.21,ESE,119,4.0,-999.0,59,0.00,,,0.00,0,WeatherHawk,2013-02-12 10:42:00,
2013-02-12 03:43:00,39.0,25.9,30.21,ESE,119,4.0,6.0,59,0.00,,,0.00,0,WeatherHawk,2013-02-12 10:43:00,
2013-02-12 03:47:00,39.4,25.8,30.21,ESE,102,3.0,6.0,58,0.00,,,0.00,0,WeatherHawk,2013-02-12 10:47:00,
2013-02-12 03:49:00,39.4,25.8,30.21,East,101,3.0,0.0,58,0.00,,,0.00,0,WeatherHawk,2013-02-12 10:49:00,
2013-02-12 03:51:00,39.4,25.8,30.21,East,90,2.0,0.0,58,0.00,,,0.00,0,WeatherHawk,2013-02-12 10:51:00,
2013-02-12 03:52:00,39.2,25.3,30.21,East,89,2.0,0.0,57,0.00,,,0.00,0,WeatherHawk,2013-02-12 10:52:00,
2013-02-12 03:56:00,39.0,25.5,30.21,ENE,75,1.0,0.0,58,0.00,,,0.00,0,WeatherHawk,2013-02-12 10:56:00,
2013-02-12 04:00:00,38.8,24.9,30.21,East,81,2.0,0.0,57,0.00,,,0.00,0,WeatherHawk,2013-02-12 11:00:00,
2013-02-12 04:02:00,39.0,25.1,30.21,East,79,2.0,0.0,57,0.00,,,0.00,0,WeatherHawk,2013-02-12 11:02:00,
2013-02-12 04:04:00,39.4,24.6,30.21,East,96,3.0,0.0,55,0.00,,,0.00,0,WeatherHawk,2013-02-12 11:04:00,
2013-02-12 04:07:00,39.7,24.9,30.21,East,99,3.0,0.0,55,0.00,,,0.00,1,WeatherHawk,2013-02-12 11:07:00,
2013-02-12 04:08:00,39.9,24.6,30.21,East,93,3.0,0.0,54,0.00,,,0.00,0,WeatherHawk,2013-02-12 11:08:00,
2013-02-12 04:09:00,40.1,24.8,30.21,ESE,102,3.0,0.0,54,0.00,,,0.00,0,WeatherHawk,2013-02-12 11:09:00,
2013-02-12 04:11:00,40.3,24.5,30.21,ESE,102,3.0,0.0,53,0.00,,,0.00,0,WeatherHawk,2013-02-12 11:11:00,
2013-02-12 04:13:00,40.5,24.7,30.21,ESE,105,3.0,0.0,53,0.00,,,0.00,0,WeatherHawk,2013-02-12 11:13:00,
2013-02-12 04:15:00,40.1,24.8,30.21,ESE,114,2.0,0.0,54,0.00,,,0.00,0,WeatherHawk,2013-02-12 11:15:00,
2013-02-12 04:17:00,39.9,24.6,30.21,ESE,108,2.0,0.0,54,0.00,,,0.00,0,WeatherHawk,2013-02-12 11:17:00,
2013-02-12 04:18:00,39.9,24.6,30.21,East,93,2.0,0.0,54,0.00,,,0.00,0,WeatherHawk,2013-02-12 11:18:00,
2013-02-12 04:19:00,39.9,24.6,30.21,East,86,3.0,3.0,54,0.00,,,0.00,0,WeatherHawk,2013-02-12 11:19:00,
2013-02-12 04:23:00,39.6,25.2,30.21,SW,236,1.0,3.0,56,0.00,,,0.00,0,WeatherHawk,2013-02-12 11:23:00,
2013-02-12 04:25:00,39.4,25.0,30.21,WSW,256,2.0,3.0,56,0.00,,,0.00,0,WeatherHawk,2013-02-12 11:25:00,
2013-02-12 04:26:00,39.2,24.4,30.21,WSW,258,1.0,3.0,55,0.00,,,0.00,1,WeatherHawk,2013-02-12 11:26:00,
2013-02-12 04:29:00,39.4,24.1,30.21,NNW,344,1.0,3.0,54,0.00,,,0.00,0,WeatherHawk,2013-02-12 11:29:00,
2013-02-12 04:30:00,39.4,24.1,30.21,WNW,288,2.0,3.0,54,0.00,,,0.00,0,WeatherHawk,2013-02-12 11:30:00,
2013-02-12 04:32:00,39.6,24.3,30.21,West,280,3.0,3.0,54,0.00,,,0.00,0,WeatherHawk,2013-02-12 11:32:00,
2013-02-12 04:33:00,39.7,24.0,30.21,WNW,299,2.0,3.0,53,0.00,,,0.00,1,WeatherHawk,2013-02-12 11:33:00,
2013-02-12 04:35:00,39.9,23.7,30.21,NW,312,1.0,3.0,52,0.00,,,0.00,0,WeatherHawk,2013-02-12 11:35:00,
2013-02-12 04:38:00,40.3,24.5,30.21,West,267,3.0,3.0,53,0.00,,,0.00,0,WeatherHawk,2013-02-12 11:38:00,
2013-02-12 04:39:00,40.3,24.5,30.21,West,260,2.0,3.0,53,0.00,,,0.00,0,WeatherHawk,2013-02-12 11:39:00,
2013-02-12 04:41:00,40.1,24.4,30.21,West,267,4.0,4.0,53,0.00,,,0.00,0,WeatherHawk,2013-02-12 11:41:00,
2013-02-12 04:43:00,40.1,23.9,30.22,West,267,4.0,-999.0,52,0.00,,,0.00,0,WeatherHawk,2013-02-12 11:43:00,
2013-02-12 04:46:00,40.5,23.8,30.22,West,274,4.0,4.0,51,0.00,,,0.00,0,WeatherHawk,2013-02-12 11:46:00,
2013-02-12 04:47:00,40.5,23.8,30.22,West,277,4.0,4.0,51,0.00,,,0.00,0,WeatherHawk,2013-02-12 11:47:00,
2013-02-12 04:48:00,40.6,23.9,30.22,West,277,4.0,4.0,51,0.00,,,0.00,0,WeatherHawk,2013-02-12 11:48:00,
2013-02-12 04:52:00,40.8,23.6,30.22,WNW,284,3.0,4.0,50,0.00,,,0.00,0,WeatherHawk,2013-02-12 11:52:00,
2013-02-12 04:53:00,40.8,23.6,30.22,WNW,284,3.0,4.0,50,0.00,,,0.00,0,WeatherHawk,2013-02-12 11:53:00,
2013-02-12 04:57:00,40.8,23.6,30.22,West,261,3.0,4.0,50,0.00,,,0.00,1,WeatherHawk,2013-02-12 11:57:00,
2013-02-12 04:58:00,40.6,24.4,30.22,WSW,249,3.0,4.0,52,0.00,,,0.00,0,WeatherHawk,2013-02-12 11:58:00,
2013-02-12 04:59:00,40.5,24.2,30.22,WSW,252,4.0,5.0,52,0.00,,,0.00,0,WeatherHawk,2013-02-12 11:59:00,
2013-02-12 05:00:00,40.5,24.7,30.22,WSW,242,3.0,5.0,53,0.00,,,0.00,0,WeatherHawk,2013-02-12 12:00:00,
2013-02-12 05:03:00,39.9,24.2,30.22,SW,236,3.0,5.0,53,0.00,,,0.00,1,WeatherHawk,2013-02-12 12:03:00,
2013-02-12 05:04:00,39.9,24.6,30.22,SSW,208,3.0,5.0,54,0.00,,,0.00,0,WeatherHawk,2013-02-12 12:04:00,
2013-02-12 05:08:00,39.2,24.8,30.22,SSW,211,3.0,5.0,56,0.00,,,0.00,0,WeatherHawk,2013-02-12 12:08:00,
2013-02-12 05:09:00,39.0,24.7,30.22,SSW,209,2.0,4.0,56,0.00,,,0.00,0,WeatherHawk,2013-02-12 12:09:00,
2013-02-12 05:11:00,38.7,24.3,30.22,South,186,2.0,4.0,56,0.00,,,0.00,0,WeatherHawk,2013-02-12 12:11:00,
2013-02-12 05:12:00,38.7,24.3,30.22,South,173,2.0,4.0,56,0.00,,,0.00,0,WeatherHawk,2013-02-12 12:12:00,
2013-02-12 05:13:00,38.7,24.8,30.22,SSE,149,2.0,-999.0,57,0.00,,,0.00,0,WeatherHawk,2013-02-12 12:13:00,
2013-02-12 05:18:00,39.0,24.7,30.22,South,174,2.0,4.0,56,0.00,,,0.00,0,WeatherHawk,2013-02-12 12:18:00,
2013-02-12 05:19:00,39.0,24.2,30.22,South,182,2.0,3.0,55,0.00,,,0.00,1,WeatherHawk,2013-02-12 12:19:00,
2013-02-12 05:20:00,39.0,24.7,30.22,SSE,162,2.0,3.0,56,0.00,,,0.00,0,WeatherHawk,2013-02-12 12:20:00,
2013-02-12 05:21:00,38.8,24.9,30.22,SSE,154,3.0,3.0,57,0.00,,,0.00,0,WeatherHawk,2013-02-12 12:21:00,
2013-02-12 05:23:00,38.3,25.2,30.22,SSE,149,3.0,3.0,59,0.00,,,0.00,0,WeatherHawk,2013-02-12 12:23:00,
2013-02-12 05:27:00,38.5,23.7,30.23,SE,134,2.0,3.0,55,0.00,,,0.00,0,WeatherHawk,2013-02-12 12:27:00,
2013-02-12 05:28:00,38.7,23.9,30.23,SSE,150,1.0,-999.0,55,0.00,,,0.00,0,WeatherHawk,2013-02-12 12:28:00,
2013-02-12 05:29:00,38.7,23.0,30.23,ESE,114,0.0,4.0,53,0.00,,,0.00,0,WeatherHawk,2013-02-12 12:29:00,
2013-02-12 05:33:00,39.2,23.1,30.23,NE,46,1.0,4.0,52,0.00,,,0.00,0,WeatherHawk,2013-02-12 12:33:00,
2013-02-12 05:36:00,39.9,22.8,30.23,NNE,30,3.0,4.0,50,0.00,,,0.00,0,WeatherHawk,2013-02-12 12:36:00,
2013-02-12 05:37:00,40.1,23.0,30.23,NE,34,2.0,4.0,50,0.00,,,0.00,0,WeatherHawk,2013-02-12 12:37:00,
2013-02-12 05:38:00,40.1,23.0,30.23,NNE,26,3.0,4.0,50,0.00,,,0.00,0,WeatherHawk,2013-02-12 12:38:00,
2013-02-12 05:43:00,41.0,21.8,30.23,North,5,4.0,4.0,46,0.00,,,0.00,0,WeatherHawk,2013-02-12 12:43:00,
2013-02-12 05:44:00,41.7,21.4,30.23,North,6,4.0,4.0,44,0.00,,,0.00,0,WeatherHawk,2013-02-12 12:44:00,
2013-02-12 05:45:00,42.1,21.2,30.23,North,7,4.0,4.0,43,0.00,,,0.00,0,WeatherHawk,2013-02-12 12:45:00,
2013-02-12 05:48:00,41.9,22.1,30.23,NNE,16,2.0,3.0,45,0.00,,,0.00,0,WeatherHawk,2013-02-12 12:48:00,
2013-02-12 05:49:00,41.7,23.0,30.23,East,84,2.0,5.0,47,0.00,,,0.00,0,WeatherHawk,2013-02-12 12:49:00,
2013-02-12 05:53:00,40.3,22.7,30.23,East,88,1.0,5.0,49,0.00,,,0.00,0,WeatherHawk,2013-02-12 12:53:00,
2013-02-12 05:57:00,40.1,23.4,30.23,East,92,3.0,5.0,51,0.00,,,0.00,0,WeatherHawk,2013-02-12 12:57:00,
2013-02-12 05:58:00,39.7,23.1,30.23,East,89,2.0,5.0,51,0.00,,,0.00,1,WeatherHawk,2013-02-12 12:58:00,
2013-02-12 06:02:00,39.7,22.6,30.23,ENE,76,1.0,4.0,50,0.00,,,0.00,0,WeatherHawk,2013-02-12 13:02:00,
2013-02-12 06:03:00,39.9,22.8,30.23,NE,48,2.0,4.0,50,0.00,,,0.00,0,WeatherHawk,2013-02-12 13:03:00,
2013-02-12 06:04:00,39.9,22.8,30.23,NE,34,2.0,4.0,50,0.00,,,0.00,0,WeatherHawk,2013-02-12 13:04:00,
2013-02-12 06:08:00,40.5,21.8,30.23,NNE,28,2.0,0.0,47,0.00,,,0.00,0,WeatherHawk,2013-02-12 13:08:00,
2013-02-12 06:09:00,40.5,23.8,30.24,NE,45,2.0,2.0,51,0.00,,,0.00,0,WeatherHawk,2013-02-12 13:09:00,
2013-02-12 06:11:00,40.1,23.4,30.24,NE,49,1.0,2.0,51,0.00,,,0.00,0,WeatherHawk,2013-02-12 13:11:00,
2013-02-12 06:12:00,39.9,23.7,30.24,ENE,60,2.0,2.0,52,0.00,,,0.00,0,WeatherHawk,2013-02-12 13:12:00,
2013-02-12 06:14:00,39.7,22.2,30.24,NNW,341,2.0,2.0,49,0.00,,,0.00,0,WeatherHawk,2013-02-12 13:14:00,
2013-02-12 06:18:00,40.1,21.5,30.24,NNW,337,2.0,2.0,47,0.00,,,0.00,0,WeatherHawk,2013-02-12 13:18:00,
2013-02-12 06:21:00,40.6,21.0,30.24,NW,322,4.0,4.0,45,0.00,,,0.00,0,WeatherHawk,2013-02-12 13:21:00,
2013-02-12 06:23:00,41.0,20.2,30.24,NW,323,4.0,4.0,43,0.00,,,0.00,0,WeatherHawk,2013-02-12 13:23:00,
2013-02-12 06:25:00,41.4,20.6,30.24,WNW,300,4.0,4.0,43,0.00,,,0.00,1,WeatherHawk,2013-02-12 13:25:00,
2013-02-12 06:26:00,41.4,20.6,30.24,WNW,296,4.0,4.0,43,0.00,,,0.00,0,WeatherHawk,2013-02-12 13:26:00,
2013-02-12 06:28:00,41.2,22.5,30.24,West,269,5.0,-999.0,47,0.00,,,0.00,1,WeatherHawk,2013-02-12 13:28:00,
2013-02-12 06:30:00,39.6,24.3,30.24,WSW,254,5.0,0.0,54,0.00,,,0.00,0,WeatherHawk,2013-02-12 13:30:00,
2013-02-12 06:31:00,38.7,24.3,30.24,WSW,252,4.0,0.0,56,0.00,,,0.00,1,WeatherHawk,2013-02-12 13:31:00,
2013-02-12 06:32:00,38.1,24.2,30.24,West,267,3.0,0.0,57,0.00,,,0.00,0,WeatherHawk,2013-02-12 13:32:00,
2013-02-12 06:33:00,37.6,24.6,30.24,West,265,3.0,0.0,59,0.00,,,0.00,0,WeatherHawk,2013-02-12 13:33:00,
2013-02-12 06:35:00,36.9,24.7,30.24,West,269,3.0,0.0,61,0.00,,,0.00,0,WeatherHawk,2013-02-12 13:35:00,
2013-02-12 06:37:00,36.9,24.7,30.24,West,271,3.0,0.0,61,0.00,,,0.00,0,WeatherHawk,2013-02-12 13:37:00,
2013-02-12 06:38:00,36.9,24.7,30.24,West,271,3.0,-999.0,61,0.00,,,0.00,0,WeatherHawk,2013-02-12 13:38:00,
2013-02-12 06:43:00,37.0,24.9,30.25,West,268,1.0,-999.0,61,0.00,,,0.00,0,WeatherHawk,2013-02-12 13:43:00,
2013-02-12 06:45:00,36.9,25.8,30.25,East,89,1.0,6.0,64,0.00,,,0.00,0,WeatherHawk,2013-02-12 13:45:00,
2013-02-12 06:50:00,36.1,25.2,30.25,ESE,112,3.0,3.0,64,0.00,,,0.00,0,WeatherHawk,2013-02-12 13:50:00,
2013-02-12 06:52:00,36.5,25.1,30.25,ESE,114,3.0,3.0,63,0.00,,,0.00,0,WeatherHawk,2013-02-12 13:52:00,
2013-02-12 06:53:00,36.7,24.9,30.25,ESE,107,3.0,3.0,62,0.00,,,0.00,0,WeatherHawk,2013-02-12 13:53:00,
2013-02-12 06:55:00,37.4,24.8,30.25,East,99,1.0,3.0,60,0.00,,,0.00,0,WeatherHawk,2013-02-12 13:55:00,
2013-02-12 06:58:00,37.8,24.7,30.25,SSE,150,0.0,3.0,59,0.00,,,0.00,0,WeatherHawk,2013-02-12 13:58:00,
2013-02-12 07:02:00,37.6,24.6,30.25,West,263,2.0,0.0,59,0.00,,,0.00,0,WeatherHawk,2013-02-12 14:02:00,
2013-02-12 07:03:00,37.6,24.6,30.25,West,263,2.0,0.0,59,0.00,,,0.00,0,WeatherHawk,2013-02-12 14:03:00,
2013-02-12 07:04:00,37.6,24.2,30.25,WNW,292,2.0,0.0,58,0.00,,,0.00,0,WeatherHawk,2013-02-12 14:04:00,
2013-02-12 07:07:00,38.1,23.8,30.25,NW,313,1.0,0.0,56,0.00,,,0.00,0,WeatherHawk,2013-02-12 14:07:00,
2013-02-12 07:08:00,38.1,23.8,30.25,NW,313,1.0,-999.0,56,0.00,,,0.00,0,WeatherHawk,2013-02-12 14:08:00,
2013-02-12 07:10:00,38.3,24.4,30.25,South,173,1.0,2.0,57,0.00,,,0.00,0,WeatherHawk,2013-02-12 14:10:00,
2013-02-12 07:11:00,38.3,24.4,30.26,SSE,151,2.0,2.0,57,0.00,,,0.00,1,WeatherHawk,2013-02-12 14:11:00,
2013-02-12 07:13:00,38.3,24.8,30.26,SE,125,3.0,-999.0,58,0.00,,,0.00,0,WeatherHawk,2013-02-12 14:13:00,
2013-02-12 07:15:00,38.5,24.2,30.26,SE,124,5.0,5.0,56,0.00,,,0.00,2,WeatherHawk,2013-02-12 14:15:00,
2013-02-12 07:16:00,38.5,24.2,30.26,ESE,121,5.0,5.0,56,0.00,,,0.00,3,WeatherHawk,2013-02-12 14:16:00,
2013-02-12 07:17:00,38.7,24.3,30.26,ESE,106,6.0,6.0,56,0.00,,,0.00,4,WeatherHawk,2013-02-12 14:17:00,
2013-02-12 07:20:00,37.8,24.3,30.26,ESE,102,3.0,6.0,58,0.00,,,0.00,4,WeatherHawk,2013-02-12 14:20:00,
2013-02-12 07:21:00,37.6,24.2,30.26,East,95,3.0,6.0,58,0.00,,,0.00,4,WeatherHawk,2013-02-12 14:21:00,
2013-02-12 07:23:00,37.6,24.6,30.26,East,79,2.0,-999.0,59,0.00,,,0.00,6,WeatherHawk,2013-02-12 14:23:00,
2013-02-12 07:26:00,37.2,24.6,30.26,East,79,2.0,6.0,60,0.00,,,0.00,7,WeatherHawk,2013-02-12 14:26:00,
2013-02-12 07:27:00,37.4,24.4,30.26,ENE,74,2.0,6.0,59,0.00,,,0.00,10,WeatherHawk,2013-02-12 14:27:00,
2013-02-12 07:30:00,37.8,23.9,30.27,ENE,66,2.0,4.0,57,0.00,,,0.00,15,WeatherHawk,2013-02-12 14:30:00,
2013-02-12 07:31:00,37.9,24.1,30.27,ENE,60,2.0,4.0,57,0.00,,,0.00,20,WeatherHawk,2013-02-12 14:31:00,
2013-02-12 07:34:00,38.8,24.1,30.27,East,95,4.0,4.0,55,0.00,,,0.00,29,WeatherHawk,2013-02-12 14:34:00,
2013-02-12 07:35:00,38.8,24.1,30.27,East,98,4.0,4.0,55,0.00,,,0.00,29,WeatherHawk,2013-02-12 14:35:00,
2013-02-12 07:37:00,38.7,23.9,30.27,ESE,104,4.0,4.0,55,0.00,,,0.00,32,WeatherHawk,2013-02-12 14:37:00,
2013-02-12 07:38:00,38.7,23.9,30.27,ESE,104,4.0,4.0,55,0.00,,,0.00,32,WeatherHawk,2013-02-12 14:38:00,
2013-02-12 07:42:00,38.8,23.6,30.27,East,93,5.0,5.0,54,0.00,,,0.00,45,WeatherHawk,2013-02-12 14:42:00,
2013-02-12 07:43:00,38.7,23.5,30.27,East,94,5.0,5.0,54,0.00,,,0.00,46,WeatherHawk,2013-02-12 14:43:00,
2013-02-12 07:44:00,38.7,23.5,30.27,East,87,4.0,5.0,54,0.00,,,0.00,49,WeatherHawk,2013-02-12 14:44:00,
2013-02-12 07:48:00,38.5,23.3,30.28,East,92,4.0,5.0,54,0.00,,,0.00,56,WeatherHawk,2013-02-12 14:48:00,
2013-02-12 07:50:00,38.3,24.0,30.28,ENE,74,4.0,0.0,56,0.00,,,0.00,63,WeatherHawk,2013-02-12 14:50:00,
2013-02-12 07:52:00,37.8,23.9,30.28,East,88,4.0,0.0,57,0.00,,,0.00,69,WeatherHawk,2013-02-12 14:52:00,
2013-02-12 07:53:00,37.8,23.9,30.28,East,87,5.0,0.0,57,0.00,,,0.00,73,WeatherHawk,2013-02-12 14:53:00,
2013-02-12 07:54:00,37.8,23.9,30.28,East,87,5.0,0.0,57,0.00,,,0.00,69,WeatherHawk,2013-02-12 14:54:00,
2013-02-12 07:56:00,37.8,23.9,30.28,East,91,5.0,0.0,57,0.00,,,0.00,80,WeatherHawk,2013-02-12 14:56:00,
2013-02-12 07:58:00,37.8,23.9,30.28,East,91,5.0,0.0,57,0.00,,,0.00,80,WeatherHawk,2013-02-12 14:58:00,
2013-02-12 08:03:00,37.8,23.9,30.28,East,91,5.0,0.0,57,0.00,,,0.00,99,WeatherHawk,2013-02-12 15:03:00,
2013-02-12 08:04:00,37.9,23.7,30.28,East,87,5.0,0.0,56,0.00,,,0.00,103,WeatherHawk,2013-02-12 15:04:00,
2013-02-12 08:05:00,38.1,23.8,30.28,East,86,5.0,0.0,56,0.00,,,0.00,104,WeatherHawk,2013-02-12 15:05:00,
2013-02-12 08:06:00,38.1,23.8,30.29,East,84,4.0,0.0,56,0.00,,,0.00,107,WeatherHawk,2013-02-12 15:06:00,
2013-02-12 08:08:00,38.3,23.6,30.29,East,84,5.0,-999.0,55,0.00,,,0.00,113,WeatherHawk,2013-02-12 15:08:00,
2013-02-12 08:10:00,38.7,23.5,30.29,East,82,5.0,6.0,54,0.00,,,0.00,120,WeatherHawk,2013-02-12 15:10:00,
2013-02-12 08:13:00,38.8,23.6,30.29,East,87,4.0,6.0,54,0.00,,,0.00,130,WeatherHawk,2013-02-12 15:13:00,
2013-02-12 08:15:00,39.2,24.0,30.29,East,85,4.0,6.0,54,0.00,,,0.00,137,WeatherHawk,2013-02-12 15:15:00,
2013-02-12 08:18:00,39.6,23.9,30.29,East,85,5.0,6.0,53,0.00,,,0.00,144,WeatherHawk,2013-02-12 15:18:00,
2013-02-12 08:20:00,39.7,23.6,30.29,East,82,6.0,0.0,52,0.00,,,0.00,151,WeatherHawk,2013-02-12 15:20:00,
2013-02-12 08:23:00,40.1,23.0,30.29,ENE,71,5.0,-999.0,50,0.00,,,0.00,161,WeatherHawk,2013-02-12 15:23:00,
2013-02-12 08:26:00,40.8,22.7,30.29,ENE,71,5.0,0.0,48,0.00,,,0.00,173,WeatherHawk,2013-02-12 15:26:00,
2013-02-12 08:28:00,40.8,22.7,30.29,ENE,71,5.0,-999.0,48,0.00,,,0.00,173,WeatherHawk,2013-02-12 15:28:00,
2013-02-12 08:30:00,41.7,22.0,30.30,ENE,69,5.0,6.0,45,0.00,,,0.00,186,WeatherHawk,2013-02-12 15:30:00,
2013-02-12 08:33:00,42.1,22.8,30.30,ENE,73,4.0,6.0,46,0.00,,,0.00,193,WeatherHawk,2013-02-12 15:33:00,
2013-02-12 08:36:00,43.0,21.5,30.30,ENE,72,4.0,6.0,42,0.00,,,0.00,204,WeatherHawk,2013-02-12 15:36:00,
2013-02-12 08:38:00,43.3,21.2,30.30,ENE,71,4.0,6.0,41,0.00,,,0.00,207,WeatherHawk,2013-02-12 15:38:00,
2013-02-12 08:41:00,44.1,22.5,30.30,ENE,76,4.0,0.0,42,0.00,,,0.00,223,WeatherHawk,2013-02-12 15:41:00,
2013-02-12 08:42:00,44.2,21.5,30.30,ENE,63,5.0,0.0,40,0.00,,,0.00,227,WeatherHawk,2013-02-12 15:42:00,
2013-02-12 08:44:00,44.4,21.6,30.30,ENE,66,4.0,0.0,40,0.00,,,0.00,232,WeatherHawk,2013-02-12 15:44:00,
2013-02-12 08:45:00,44.6,21.8,30.30,ENE,57,3.0,0.0,40,0.00,,,0.00,237,WeatherHawk,2013-02-12 15:45:00,
2013-02-12 08:48:00,45.0,20.9,30.30,NE,46,4.0,0.0,38,0.00,,,0.00,236,WeatherHawk,2013-02-12 15:48:00,
2013-02-12 08:49:00,45.1,21.1,30.30,NE,40,3.0,0.0,38,0.00,,,0.00,249,WeatherHawk,2013-02-12 15:49:00,
2013-02-12 08:50:00,45.5,21.4,30.31,NE,40,3.0,0.0,38,0.00,,,0.00,256,WeatherHawk,2013-02-12 15:50:00,
2013-02-12 08:55:00,46.2,20.1,30.31,NNE,26,3.0,0.0,35,0.00,,,0.00,272,WeatherHawk,2013-02-12 15:55:00,
2013-02-12 08:56:00,46.4,20.3,30.31,NNE,26,2.0,0.0,35,0.00,,,0.00,276,WeatherHawk,2013-02-12 15:56:00,
2013-02-12 08:58:00,46.4,20.3,30.31,NNE,26,2.0,0.0,35,0.00,,,0.00,276,WeatherHawk,2013-02-12 15:58:00,
2013-02-12 09:00:00,46.8,19.9,30.31,NE,38,3.0,0.0,34,0.00,,,0.00,286,WeatherHawk,2013-02-12 16:00:00,
2013-02-12 09:03:00,46.9,20.1,30.31,NE,42,3.0,-999.0,34,0.00,,,0.00,297,WeatherHawk,2013-02-12 16:03:00,
2013-02-12 09:04:00,47.3,20.4,30.31,NE,53,2.0,0.0,34,0.00,,,0.00,303,WeatherHawk,2013-02-12 16:04:00,
2013-02-12 09:08:00,47.7,20.0,30.31,NE,43,3.0,-999.0,33,0.00,,,0.00,314,WeatherHawk,2013-02-12 16:08:00,
2013-02-12 09:10:00,47.7,19.3,30.32,NE,44,4.0,0.0,32,0.00,,,0.00,321,WeatherHawk,2013-02-12 16:10:00,
2013-02-12 09:13:00,47.8,20.1,30.32,NE,46,3.0,0.0,33,0.00,,,0.00,331,WeatherHawk,2013-02-12 16:13:00,
2013-02-12 09:14:00,48.0,18.8,30.32,NNE,18,5.0,0.0,31,0.00,,,0.00,337,WeatherHawk,2013-02-12 16:14:00,
2013-02-12 09:16:00,48.2,19.7,30.32,NE,36,6.0,0.0,32,0.00,,,0.00,344,WeatherHawk,2013-02-12 16:16:00,
2013-02-12 09:17:00,48.2,19.7,30.32,NE,36,5.0,0.0,32,0.00,,,0.00,348,WeatherHawk,2013-02-12 16:17:00,
2013-02-12 09:18:00,48.2,19.7,30.32,NNE,24,4.0,0.0,32,0.00,,,0.00,351,WeatherHawk,2013-02-12 16:18:00,
2013-02-12 09:22:00,48.2,19.7,30.32,NE,47,5.0,0.0,32,0.00,,,0.00,360,WeatherHawk,2013-02-12 16:22:00,
2013-02-12 09:23:00,48.2,19.7,30.32,NE,47,5.0,0.0,32,0.00,,,0.00,360,WeatherHawk,2013-02-12 16:23:00,
2013-02-12 09:26:00,48.6,20.1,30.32,NNE,31,5.0,0.0,32,0.00,,,0.00,377,WeatherHawk,2013-02-12 16:26:00,
2013-02-12 09:28:00,48.6,20.1,30.32,NNE,32,6.0,0.0,32,0.00,,,0.00,384,WeatherHawk,2013-02-12 16:28:00,
2013-02-12 09:32:00,48.9,19.6,30.32,NNE,30,8.0,0.0,31,0.00,,,0.00,397,WeatherHawk,2013-02-12 16:32:00,
2013-02-12 09:33:00,49.1,19.8,30.32,NE,41,8.0,0.0,31,0.00,,,0.00,400,WeatherHawk,2013-02-12 16:33:00,
2013-02-12 09:35:00,49.3,20.7,30.32,NE,44,7.0,0.0,32,0.00,,,0.00,407,WeatherHawk,2013-02-12 16:35:00,
2013-02-12 09:36:00,49.5,20.8,30.32,NE,39,8.0,0.0,32,0.00,,,0.00,413,WeatherHawk,2013-02-12 16:36:00,
2013-02-12 09:38:00,49.5,20.8,30.32,NE,43,7.0,-999.0,32,0.00,,,0.00,416,WeatherHawk,2013-02-12 16:38:00,
2013-02-12 09:39:00,49.5,20.1,30.32,NNE,14,8.0,0.0,31,0.00,,,0.00,420,WeatherHawk,2013-02-12 16:39:00,
2013-02-12 09:40:00,49.6,20.3,30.32,NNE,30,6.0,0.0,31,0.00,,,0.00,426,WeatherHawk,2013-02-12 16:40:00,
2013-02-12 09:45:00,50.0,19.8,30.32,NNE,17,8.0,0.0,30,0.00,,,0.00,439,WeatherHawk,2013-02-12 16:45:00,
2013-02-12 09:48:00,50.4,19.3,30.33,NNE,23,10.0,0.0,29,0.00,,,0.00,452,WeatherHawk,2013-02-12 16:48:00,
2013-02-12 09:51:00,50.4,19.3,30.33,NNE,22,11.0,0.0,29,0.00,,,0.00,459,WeatherHawk,2013-02-12 16:51:00,
2013-02-12 09:53:00,50.5,19.5,30.33,NNE,33,8.0,0.0,29,0.00,,,0.00,466,WeatherHawk,2013-02-12 16:53:00,
2013-02-12 09:54:00,50.7,20.4,30.33,North,9,8.0,0.0,30,0.00,,,0.00,472,WeatherHawk,2013-02-12 16:54:00,
2013-02-12 09:57:00,51.1,19.9,30.33,NNE,14,8.0,0.0,29,0.00,,,0.00,483,WeatherHawk,2013-02-12 16:57:00,
2013-02-12 09:58:00,51.1,20.7,30.33,NE,34,7.0,0.0,30,0.00,,,0.00,486,WeatherHawk,2013-02-12 16:58:00,
2013-02-12 09:59:00,51.3,20.1,30.33,NNE,24,8.0,0.0,29,0.00,,,0.00,487,WeatherHawk,2013-02-12 16:59:00,
2013-02-12 10:02:00,51.4,20.3,30.33,North,4,10.0,-999.0,29,0.00,,,0.00,497,WeatherHawk,2013-02-12 17:02:00,
2013-02-12 10:05:00,51.8,19.7,30.33,NNE,20,9.0,0.0,28,0.00,,,0.00,502,WeatherHawk,2013-02-12 17:05:00,
2013-02-12 10:07:00,52.2,20.1,30.33,North,11,10.0,0.0,28,0.00,,,0.00,511,WeatherHawk,2013-02-12 17:07:00,
2013-02-12 10:11:00,52.5,20.4,30.33,NNE,20,8.0,11.0,28,0.00,,,0.00,525,WeatherHawk,2013-02-12 17:11:00,
2013-02-12 10:12:00,52.5,20.4,30.33,NNE,20,8.0,11.0,28,0.00,,,0.00,525,WeatherHawk,2013-02-12 17:12:00,
2013-02-12 10:17:00,53.2,21.0,30.32,North,2,9.0,-999.0,28,0.00,,,0.00,543,WeatherHawk,2013-02-12 17:17:00,
2013-02-12 10:18:00,53.2,21.0,30.32,NNE,19,8.0,11.0,28,0.00,,,0.00,544,WeatherHawk,2013-02-12 17:18:00,
2013-02-12 10:20:00,53.6,21.3,30.32,North,9,8.0,10.0,28,0.00,,,0.00,548,WeatherHawk,2013-02-12 17:20:00,
2013-02-12 10:23:00,54.1,20.0,30.32,NNE,29,12.0,12.0,26,0.00,,,0.00,559,WeatherHawk,2013-02-12 17:23:00,
2013-02-12 10:25:00,54.7,18.6,30.32,North,3,13.0,13.0,24,0.00,,,0.00,564,WeatherHawk,2013-02-12 17:25:00,
2013-02-12 10:28:00,54.9,17.8,30.32,NNE,16,13.0,13.0,23,0.00,,,0.00,570,WeatherHawk,2013-02-12 17:28:00,
2013-02-12 10:31:00,55.2,18.1,30.32,North,10,14.0,16.0,23,0.00,,,0.00,581,WeatherHawk,2013-02-12 17:31:00,
2013-02-12 10:33:00,55.4,18.2,30.32,NNE,17,15.0,16.0,23,0.00,,,0.00,587,WeatherHawk,2013-02-12 17:33:00,
2013-02-12 10:37:00,55.6,17.4,30.32,North,8,15.0,16.0,22,0.00,,,0.00,599,WeatherHawk,2013-02-12 17:37:00,
2013-02-12 10:38:00,55.8,17.5,30.32,NNE,13,16.0,16.0,22,0.00,,,0.00,598,WeatherHawk,2013-02-12 17:38:00,
2013-02-12 10:39:00,55.9,17.7,30.32,North,10,17.0,19.0,22,0.00,,,0.00,604,WeatherHawk,2013-02-12 17:39:00,
2013-02-12 10:42:00,56.1,17.8,30.33,North,10,15.0,19.0,22,0.00,,,0.00,610,WeatherHawk,2013-02-12 17:42:00,
2013-02-12 10:43:00,56.1,17.8,30.32,NNE,19,17.0,19.0,22,0.00,,,0.00,615,WeatherHawk,2013-02-12 17:43:00,
2013-02-12 10:48:00,55.8,17.5,30.33,NNE,16,14.0,19.0,22,0.00,,,0.00,623,WeatherHawk,2013-02-12 17:48:00,
2013-02-12 10:49:00,55.8,17.5,30.33,NNE,27,17.0,0.0,22,0.00,,,0.00,626,WeatherHawk,2013-02-12 17:49:00,
2013-02-12 10:53:00,56.1,17.8,30.33,North,11,17.0,19.0,22,0.00,,,0.00,636,WeatherHawk,2013-02-12 17:53:00,
2013-02-12 10:55:00,56.1,16.7,30.33,North,9,14.0,19.0,21,0.00,,,0.00,642,WeatherHawk,2013-02-12 17:55:00,
2013-02-12 10:58:00,56.5,17.0,30.33,NNE,13,13.0,-999.0,21,0.00,,,0.00,646,WeatherHawk,2013-02-12 17:58:00,
2013-02-12 11:00:00,56.7,17.2,30.33,North,11,16.0,0.0,21,0.00,,,0.00,651,WeatherHawk,2013-02-12 18:00:00,
2013-02-12 11:04:00,56.8,17.3,30.33,NNE,24,16.0,18.0,21,0.00,,,0.00,660,WeatherHawk,2013-02-12 18:04:00,
2013-02-12 11:07:00,56.8,16.2,30.33,North,3,20.0,20.0,20,0.00,,,0.00,668,WeatherHawk,2013-02-12 18:07:00,
2013-02-12 11:09:00,56.7,16.1,30.33,North,6,16.0,20.0,20,0.00,,,0.00,672,WeatherHawk,2013-02-12 18:09:00,
2013-02-12 11:11:00,56.5,14.7,30.33,NNE,19,15.0,20.0,19,0.00,,,0.00,677,WeatherHawk,2013-02-12 18:11:00,
2013-02-12 11:13:00,56.5,15.9,30.33,NNE,20,10.0,20.0,20,0.00,,,0.00,678,WeatherHawk,2013-02-12 18:13:00,
2013-02-12 11:17:00,56.8,15.0,30.32,North,8,16.0,20.0,19,0.00,,,0.00,687,WeatherHawk,2013-02-12 18:17:00,
2013-02-12 11:18:00,56.7,14.9,30.32,NNE,13,15.0,20.0,19,0.00,,,0.00,692,WeatherHawk,2013-02-12 18:18:00,
2013-02-12 11:20:00,56.8,13.8,30.32,North,10,15.0,20.0,18,0.00,,,0.00,696,WeatherHawk,2013-02-12 18:20:00,
2013-02-12 11:21:00,56.8,15.0,30.32,NNE,18,18.0,20.0,19,0.00,,,0.00,696,WeatherHawk,2013-02-12 18:21:00,
2013-02-12 11:23:00,56.8,13.8,30.32,NNE,14,15.0,20.0,18,0.00,,,0.00,700,WeatherHawk,2013-02-12 18:23:00,
2013-02-12 11:28:00,57.0,13.9,30.32,North,8,14.0,20.0,18,0.00,,,0.00,708,WeatherHawk,2013-02-12 18:28:00,
2013-02-12 11:33:00,57.2,14.1,30.32,North,9,11.0,19.0,18,0.00,,,0.00,718,WeatherHawk,2013-02-12 18:33:00,
2013-02-12 11:34:00,57.6,14.4,30.32,NNE,23,13.0,19.0,18,0.00,,,0.00,720,WeatherHawk,2013-02-12 18:34:00,
2013-02-12 11:38:00,57.6,13.1,30.32,NNE,33,16.0,-999.0,17,0.00,,,0.00,722,WeatherHawk,2013-02-12 18:38:00,
2013-02-12 11:40:00,58.1,13.5,30.32,NE,35,14.0,16.0,17,0.00,,,0.00,729,WeatherHawk,2013-02-12 18:40:00,
2013-02-12 11:41:00,58.3,13.7,30.32,NNE,26,15.0,16.0,17,0.00,,,0.00,728,WeatherHawk,2013-02-12 18:41:00,
2013-02-12 11:43:00,57.9,14.7,30.32,North,3,13.0,16.0,18,0.00,,,0.00,732,WeatherHawk,2013-02-12 18:43:00,
2013-02-12 11:44:00,57.9,13.4,30.32,North,4,16.0,16.0,17,0.00,,,0.00,735,WeatherHawk,2013-02-12 18:44:00,
2013-02-12 11:46:00,58.1,13.5,30.31,North,2,17.0,17.0,17,0.00,,,0.00,734,WeatherHawk,2013-02-12 18:46:00,
2013-02-12 11:48:00,57.9,13.4,30.31,NNE,18,15.0,16.0,17,0.00,,,0.00,738,WeatherHawk,2013-02-12 18:48:00,
2013-02-12 11:51:00,58.1,13.5,30.32,North,9,18.0,18.0,17,0.00,,,0.00,747,WeatherHawk,2013-02-12 18:51:00,
2013-02-12 11:53:00,58.1,13.5,30.32,NNE,16,15.0,-999.0,17,0.00,,,0.00,747,WeatherHawk,2013-02-12 18:53:00,
2013-02-12 11:54:00,58.1,12.2,30.31,NNE,21,15.0,18.0,16,0.00,,,0.00,747,WeatherHawk,2013-02-12 18:54:00,
2013-02-12 11:57:00,58.3,12.3,30.31,North,10,17.0,18.0,16,0.00,,,0.00,751,WeatherHawk,2013-02-12 18:57:00,
2013-02-12 11:58:00,58.1,12.2,30.31,NNE,13,13.0,18.0,16,0.00,,,0.00,753,WeatherHawk,2013-02-12 18:58:00,
2013-02-12 12:03:00,58.3,12.3,30.31,North,8,15.0,19.0,16,0.00,,,0.00,757,WeatherHawk,2013-02-12 19:03:00,
2013-02-12 12:04:00,58.3,12.3,30.31,North,5,19.0,19.0,16,0.00,,,0.00,763,WeatherHawk,2013-02-12 19:04:00,
2013-02-12 12:05:00,58.1,12.2,30.31,North,0,18.0,19.0,16,0.00,,,0.00,762,WeatherHawk,2013-02-12 19:05:00,
2013-02-12 12:08:00,58.1,13.5,30.31,NNE,12,14.0,19.0,17,0.00,,,0.00,764,WeatherHawk,2013-02-12 19:08:00,
2013-02-12 12:09:00,58.1,12.2,30.31,NNE,23,13.0,21.0,16,0.00,,,0.00,765,WeatherHawk,2013-02-12 19:09:00,
2013-02-12 12:11:00,58.6,12.6,30.31,NNE,13,19.0,21.0,16,0.00,,,0.00,768,WeatherHawk,2013-02-12 19:11:00,
2013-02-12 12:13:00,58.3,12.3,30.31,North,5,15.0,21.0,16,0.00,,,0.00,770,WeatherHawk,2013-02-12 19:13:00,
2013-02-12 12:14:00,58.3,12.3,30.31,North,2,16.0,21.0,16,0.00,,,0.00,770,WeatherHawk,2013-02-12 19:14:00,
2013-02-12 12:18:00,58.5,12.5,30.30,North,4,18.0,21.0,16,0.00,,,0.00,774,WeatherHawk,2013-02-12 19:18:00,
2013-02-12 12:20:00,58.5,12.5,30.30,North,358,14.0,19.0,16,0.00,,,0.00,774,WeatherHawk,2013-02-12 19:20:00,
2013-02-12 12:23:00,58.3,12.3,30.30,North,3,18.0,-999.0,16,0.00,,,0.00,777,WeatherHawk,2013-02-12 19:23:00,
2013-02-12 12:26:00,58.1,12.2,30.30,NNE,26,16.0,19.0,16,0.00,,,0.00,778,WeatherHawk,2013-02-12 19:26:00,
2013-02-12 12:28:00,58.3,12.3,30.30,NNE,17,16.0,19.0,16,0.00,,,0.00,776,WeatherHawk,2013-02-12 19:28:00,
2013-02-12 12:32:00,58.6,11.1,30.30,NNE,23,16.0,23.0,15,0.00,,,0.00,782,WeatherHawk,2013-02-12 19:32:00,
2013-02-12 12:33:00,58.6,11.1,30.30,NNE,23,16.0,23.0,15,0.00,,,0.00,782,WeatherHawk,2013-02-12 19:33:00,
2013-02-12 12:36:00,58.8,11.3,30.30,NE,38,17.0,23.0,15,0.00,,,0.00,784,WeatherHawk,2013-02-12 19:36:00,
2013-02-12 12:37:00,58.6,11.1,30.30,NNE,30,16.0,23.0,15,0.00,,,0.00,783,WeatherHawk,2013-02-12 19:37:00,
2013-02-12 12:39:00,59.4,11.7,30.30,NNE,17,19.0,19.0,15,0.00,,,0.00,783,WeatherHawk,2013-02-12 19:39:00,
2013-02-12 12:42:00,58.6,11.1,30.30,NE,37,11.0,19.0,15,0.00,,,0.00,782,WeatherHawk,2013-02-12 19:42:00,
2013-02-12 12:43:00,58.8,12.7,30.29,NNE,14,15.0,19.0,16,0.00,,,0.00,782,WeatherHawk,2013-02-12 19:43:00,
2013-02-12 12:44:00,59.0,11.4,30.29,NNE,12,14.0,19.0,15,0.00,,,0.00,780,WeatherHawk,2013-02-12 19:44:00,
2013-02-12 12:47:00,58.8,11.3,30.29,NNE,33,14.0,19.0,15,0.00,,,0.00,786,WeatherHawk,2013-02-12 19:47:00,
2013-02-12 12:49:00,58.8,12.7,30.29,NNE,16,15.0,20.0,16,0.00,,,0.00,784,WeatherHawk,2013-02-12 19:49:00,
2013-02-12 12:52:00,59.4,13.2,30.29,North,8,12.0,20.0,16,0.00,,,0.00,783,WeatherHawk,2013-02-12 19:52:00,
2013-02-12 12:53:00,59.5,11.9,30.29,NNE,16,14.0,20.0,15,0.00,,,0.00,785,WeatherHawk,2013-02-12 19:53:00,
2013-02-12 12:57:00,59.5,13.3,30.29,North,0,13.0,20.0,16,0.00,,,0.00,782,WeatherHawk,2013-02-12 19:57:00,
2013-02-12 12:58:00,59.9,12.2,30.29,North,3,12.0,20.0,15,0.00,,,0.00,784,WeatherHawk,2013-02-12 19:58:00,
2013-02-12 13:03:00,59.4,13.2,30.28,North,10,13.0,17.0,16,0.00,,,0.00,785,WeatherHawk,2013-02-12 20:03:00,
2013-02-12 13:07:00,59.7,13.5,30.28,North,350,17.0,17.0,16,0.00,,,0.00,781,WeatherHawk,2013-02-12 20:07:00,
2013-02-12 13:08:00,59.7,13.5,30.28,North,9,15.0,17.0,16,0.00,,,0.00,783,WeatherHawk,2013-02-12 20:08:00,
2013-02-12 13:09:00,59.5,11.9,30.28,NNE,12,17.0,18.0,15,0.00,,,0.00,784,WeatherHawk,2013-02-12 20:09:00,
2013-02-12 13:10:00,59.4,11.7,30.28,North,2,14.0,18.0,15,0.00,,,0.00,786,WeatherHawk,2013-02-12 20:10:00,
2013-02-12 13:13:00,59.5,11.9,30.27,North,356,16.0,18.0,15,0.00,,,0.00,782,WeatherHawk,2013-02-12 20:13:00,
2013-02-12 13:14:00,59.2,11.6,30.27,North,5,12.0,18.0,15,0.00,,,0.00,782,WeatherHawk,2013-02-12 20:14:00,
2013-02-12 13:16:00,59.5,11.9,30.27,NNE,15,8.0,18.0,15,0.00,,,0.00,779,WeatherHawk,2013-02-12 20:16:00,
2013-02-12 13:17:00,59.7,13.5,30.27,North,0,13.0,18.0,16,0.00,,,0.00,782,WeatherHawk,2013-02-12 20:17:00,
2013-02-12 13:18:00,59.7,10.5,30.27,North,2,11.0,18.0,14,0.00,,,0.00,780,WeatherHawk,2013-02-12 20:18:00,
2013-02-12 13:21:00,59.5,11.9,30.27,North,358,18.0,20.0,15,0.00,,,0.00,778,WeatherHawk,2013-02-12 20:21:00,
2013-02-12 13:22:00,59.5,10.3,30.27,North,353,16.0,20.0,14,0.00,,,0.00,780,WeatherHawk,2013-02-12 20:22:00,
2013-02-12 13:23:00,59.5,10.3,30.27,North,353,16.0,20.0,14,0.00,,,0.00,780,WeatherHawk,2013-02-12 20:23:00,
2013-02-12 13:27:00,59.7,13.5,30.27,North,2,19.0,20.0,16,0.00,,,0.00,771,WeatherHawk,2013-02-12 20:27:00,
2013-02-12 13:28:00,59.9,12.2,30.27,North,11,13.0,20.0,15,0.00,,,0.00,773,WeatherHawk,2013-02-12 20:28:00,
2013-02-12 13:29:00,59.7,12.0,30.27,North,7,15.0,0.0,15,0.00,,,0.00,776,WeatherHawk,2013-02-12 20:29:00,
2013-02-12 13:33:00,59.7,10.5,30.27,NNW,342,14.0,0.0,14,0.00,,,0.00,771,WeatherHawk,2013-02-12 20:33:00,
2013-02-12 13:35:00,59.7,10.5,30.26,NNE,13,18.0,0.0,14,0.00,,,0.00,770,WeatherHawk,2013-02-12 20:35:00,
2013-02-12 13:38:00,59.9,12.2,30.26,NNW,343,14.0,0.0,15,0.00,,,0.00,767,WeatherHawk,2013-02-12 20:38:00,
2013-02-12 13:40:00,59.9,10.6,30.26,NNE,13,11.0,18.0,14,0.00,,,0.00,764,WeatherHawk,2013-02-12 20:40:00,
2013-02-12 13:41:00,59.7,10.5,30.26,North,10,10.0,18.0,14,0.00,,,0.00,764,WeatherHawk,2013-02-12 20:41:00,
2013-02-12 13:43:00,59.9,12.2,30.26,NNE,25,11.0,-999.0,15,0.00,,,0.00,761,WeatherHawk,2013-02-12 20:43:00,
2013-02-12 13:47:00,59.9,13.6,30.26,North,351,12.0,18.0,16,0.00,,,0.00,759,WeatherHawk,2013-02-12 20:47:00,
2013-02-12 13:48:00,59.9,12.2,30.26,NNW,346,13.0,18.0,15,0.00,,,0.00,757,WeatherHawk,2013-02-12 20:48:00,
2013-02-12 13:49:00,59.7,12.0,30.26,NNE,17,11.0,0.0,15,0.00,,,0.00,756,WeatherHawk,2013-02-12 20:49:00,
2013-02-12 13:53:00,60.6,12.7,30.26,North,359,12.0,19.0,15,0.00,,,0.00,749,WeatherHawk,2013-02-12 20:53:00,
2013-02-12 13:55:00,60.6,12.7,30.26,North,7,16.0,19.0,15,0.00,,,0.00,749,WeatherHawk,2013-02-12 20:55:00,
2013-02-12 13:58:00,60.8,12.9,30.26,North,353,15.0,19.0,15,0.00,,,0.00,743,WeatherHawk,2013-02-12 20:58:00,
2013-02-12 14:01:00,60.6,14.2,30.25,NW,319,14.0,0.0,16,0.00,,,0.00,738,WeatherHawk,2013-02-12 21:01:00,
2013-02-12 14:03:00,60.3,12.4,30.25,North,5,15.0,-999.0,15,0.00,,,0.00,738,WeatherHawk,2013-02-12 21:03:00,
2013-02-12 14:05:00,60.1,12.3,30.25,North,2,18.0,0.0,15,0.00,,,0.00,735,WeatherHawk,2013-02-12 21:05:00,
2013-02-12 14:07:00,60.3,12.4,30.25,North,354,14.0,0.0,15,0.00,,,0.00,735,WeatherHawk,2013-02-12 21:07:00,
2013-02-12 14:08:00,60.1,12.3,30.25,North,350,13.0,0.0,15,0.00,,,0.00,730,WeatherHawk,2013-02-12 21:08:00,
2013-02-12 14:11:00,60.1,12.3,30.25,North,351,11.0,0.0,15,0.00,,,0.00,726,WeatherHawk,2013-02-12 21:11:00,
2013-02-12 14:12:00,60.1,12.3,30.25,North,3,12.0,0.0,15,0.00,,,0.00,726,WeatherHawk,2013-02-12 21:12:00,
2013-02-12 14:13:00,60.3,12.4,30.25,North,355,12.0,0.0,15,0.00,,,0.00,723,WeatherHawk,2013-02-12 21:13:00,
2013-02-12 14:18:00,60.3,12.4,30.25,NNW,346,12.0,0.0,15,0.00,,,0.00,715,WeatherHawk,2013-02-12 21:18:00,
2013-02-12 14:21:00,60.8,12.9,30.25,NNW,348,16.0,18.0,15,0.00,,,0.00,711,WeatherHawk,2013-02-12 21:21:00,
2013-02-12 14:23:00,61.0,13.0,30.25,NNW,345,16.0,18.0,15,0.00,,,0.00,708,WeatherHawk,2013-02-12 21:23:00,
2013-02-12 14:24:00,61.0,11.5,30.25,North,4,15.0,18.0,14,0.00,,,0.00,705,WeatherHawk,2013-02-12 21:24:00,
2013-02-12 14:28:00,60.8,9.7,30.25,North,349,16.0,18.0,13,0.00,,,0.00,698,WeatherHawk,2013-02-12 21:28:00,
2013-02-12 14:29:00,60.6,11.2,30.24,North,353,19.0,20.0,14,0.00,,,0.00,698,WeatherHawk,2013-02-12 21:29:00,
2013-02-12 14:33:00,60.4,9.4,30.24,North,356,13.0,-999.0,13,0.00,,,0.00,690,WeatherHawk,2013-02-12 21:33:00,
2013-02-12 14:35:00,60.4,9.4,30.24,North,354,12.0,20.0,13,0.00,,,0.00,687,WeatherHawk,2013-02-12 21:35:00,
2013-02-12 14:38:00,60.4,9.4,30.24,NNW,344,12.0,20.0,13,0.00,,,0.00,680,WeatherHawk,2013-02-12 21:38:00,
2013-02-12 14:41:00,60.4,9.4,30.24,North,357,17.0,19.0,13,0.00,,,0.00,672,WeatherHawk,2013-02-12 21:41:00,
2013-02-12 14:45:00,60.6,9.5,30.24,North,1,15.0,19.0,13,0.00,,,0.00,665,WeatherHawk,2013-02-12 21:45:00,
2013-02-12 14:46:00,60.6,9.5,30.24,NNE,15,14.0,19.0,13,0.00,,,0.00,660,WeatherHawk,2013-02-12 21:46:00,
2013-02-12 14:48:00,60.6,9.5,30.24,North,5,12.0,19.0,13,0.00,,,0.00,658,WeatherHawk,2013-02-12 21:48:00,
2013-02-12 14:51:00,61.2,9.9,30.24,NNW,329,14.0,19.0,13,0.00,,,0.00,652,WeatherHawk,2013-02-12 21:51:00,
2013-02-12 14:53:00,61.2,11.6,30.24,NNW,335,14.0,-999.0,14,0.00,,,0.00,649,WeatherHawk,2013-02-12 21:53:00,
2013-02-12 14:54:00,61.0,11.5,30.24,North,353,12.0,19.0,14,0.00,,,0.00,641,WeatherHawk,2013-02-12 21:54:00,
2013-02-12 14:56:00,60.8,11.3,30.24,North,1,17.0,19.0,14,0.00,,,0.00,636,WeatherHawk,2013-02-12 21:56:00,
2013-02-12 14:57:00,60.8,9.7,30.24,North,350,17.0,19.0,13,0.00,,,0.00,639,WeatherHawk,2013-02-12 21:57:00,
2013-02-12 15:01:00,60.8,9.7,30.24,North,349,15.0,0.0,13,0.00,,,0.00,628,WeatherHawk,2013-02-12 22:01:00,
2013-02-12 15:03:00,60.8,9.7,30.24,North,350,10.0,0.0,13,0.00,,,0.00,624,WeatherHawk,2013-02-12 22:03:00,
2013-02-12 15:08:00,61.0,9.8,30.23,North,10,13.0,0.0,13,0.00,,,0.00,611,WeatherHawk,2013-02-12 22:08:00,
2013-02-12 15:09:00,60.8,9.7,30.24,NNW,345,18.0,0.0,13,0.00,,,0.00,610,WeatherHawk,2013-02-12 22:09:00,
2013-02-12 15:13:00,60.8,11.3,30.23,NNW,341,15.0,-999.0,14,0.00,,,0.00,598,WeatherHawk,2013-02-12 22:13:00,
2013-02-12 15:17:00,60.8,9.7,30.23,North,8,11.0,0.0,13,0.00,,,0.00,587,WeatherHawk,2013-02-12 22:17:00,
2013-02-12 15:18:00,60.6,11.2,30.23,North,7,19.0,0.0,14,0.00,,,0.00,584,WeatherHawk,2013-02-12 22:18:00,
2013-02-12 15:22:00,60.4,11.0,30.23,NNW,336,11.0,0.0,14,0.00,,,0.00,572,WeatherHawk,2013-02-12 22:22:00,
2013-02-12 15:23:00,60.4,11.0,30.23,NNW,333,12.0,-999.0,14,0.00,,,0.00,570,WeatherHawk,2013-02-12 22:23:00,
2013-02-12 15:28:00,61.2,13.2,30.23,NNW,329,14.0,0.0,15,0.00,,,0.00,554,WeatherHawk,2013-02-12 22:28:00,
2013-02-12 15:29:00,61.2,11.6,30.23,North,7,15.0,0.0,14,0.00,,,0.00,551,WeatherHawk,2013-02-12 22:29:00,
2013-02-12 15:33:00,61.0,9.8,30.23,North,358,14.0,17.0,13,0.00,,,0.00,540,WeatherHawk,2013-02-12 22:33:00,
2013-02-12 15:35:00,60.8,9.7,30.23,North,10,13.0,17.0,13,0.00,,,0.00,534,WeatherHawk,2013-02-12 22:35:00,
2013-02-12 15:39:00,60.8,11.3,30.23,NNW,346,11.0,0.0,14,0.00,,,0.00,520,WeatherHawk,2013-02-12 22:39:00,
2013-02-12 15:40:00,60.8,11.3,30.23,NNW,340,10.0,0.0,14,0.00,,,0.00,517,WeatherHawk,2013-02-12 22:40:00,
2013-02-12 15:41:00,60.6,12.7,30.23,NNW,337,13.0,0.0,15,0.00,,,0.00,510,WeatherHawk,2013-02-12 22:41:00,
2013-02-12 15:45:00,60.8,9.7,30.23,NNW,342,10.0,0.0,13,0.00,,,0.00,506,WeatherHawk,2013-02-12 22:45:00,
2013-02-12 15:47:00,61.2,11.6,30.22,NNW,345,14.0,0.0,14,0.00,,,0.00,494,WeatherHawk,2013-02-12 22:47:00,
2013-02-12 15:48:00,61.0,11.5,30.22,NNW,348,14.0,-999.0,14,0.00,,,0.00,496,WeatherHawk,2013-02-12 22:48:00,
2013-02-12 15:50:00,61.0,9.8,30.23,North,351,10.0,18.0,13,0.00,,,0.00,489,WeatherHawk,2013-02-12 22:50:00,
2013-02-12 15:53:00,61.0,11.5,30.23,NNW,329,12.0,18.0,14,0.00,,,0.00,475,WeatherHawk,2013-02-12 22:53:00,
2013-02-12 15:55:00,61.0,14.5,30.22,NNW,333,13.0,18.0,16,0.00,,,0.00,473,WeatherHawk,2013-02-12 22:55:00,
2013-02-12 15:58:00,61.3,10.1,30.22,North,2,17.0,18.0,13,0.00,,,0.00,466,WeatherHawk,2013-02-12 22:58:00,
2013-02-12 16:02:00,60.6,9.5,30.22,North,358,9.0,0.0,13,0.00,,,0.00,451,WeatherHawk,2013-02-12 23:02:00,
2013-02-12 16:03:00,60.6,9.5,30.22,North,358,9.0,0.0,13,0.00,,,0.00,448,WeatherHawk,2013-02-12 23:03:00,
2013-02-12 16:06:00,61.2,11.6,30.22,NNW,330,13.0,0.0,14,0.00,,,0.00,441,WeatherHawk,2013-02-12 23:06:00,
2013-02-12 16:07:00,61.3,11.8,30.22,NNW,342,16.0,0.0,14,0.00,,,0.00,433,WeatherHawk,2013-02-12 23:07:00,
2013-02-12 16:08:00,61.3,11.8,30.22,NNW,330,13.0,0.0,14,0.00,,,0.00,431,WeatherHawk,2013-02-12 23:08:00,
2013-02-12 16:11:00,61.3,11.8,30.22,NNW,339,14.0,16.0,14,0.00,,,0.00,420,WeatherHawk,2013-02-12 23:11:00,
2013-02-12 16:13:00,61.2,11.6,30.22,NW,325,13.0,16.0,14,0.00,,,0.00,417,WeatherHawk,2013-02-12 23:13:00,
2013-02-12 16:16:00,61.2,11.6,30.22,NNW,339,13.0,16.0,14,0.00,,,0.00,405,WeatherHawk,2013-02-12 23:16:00,
2013-02-12 16:18:00,61.2,9.9,30.22,NW,324,12.0,16.0,13,0.00,,,0.00,397,WeatherHawk,2013-02-12 23:18:00,
2013-02-12 16:21:00,61.2,11.6,30.22,NNW,337,17.0,0.0,14,0.00,,,0.00,388,WeatherHawk,2013-02-12 23:21:00,
2013-02-12 16:23:00,61.2,9.9,30.22,NNW,340,9.0,0.0,13,0.00,,,0.00,380,WeatherHawk,2013-02-12 23:23:00,
2013-02-12 16:24:00,61.2,9.9,30.22,NNW,337,11.0,0.0,13,0.00,,,0.00,378,WeatherHawk,2013-02-12 23:24:00,
2013-02-12 16:26:00,61.2,11.6,30.22,NNW,327,8.0,0.0,14,0.00,,,0.00,370,WeatherHawk,2013-02-12 23:26:00,
2013-02-12 16:29:00,61.3,10.1,30.22,North,352,9.0,0.0,13,0.00,,,0.00,359,WeatherHawk,2013-02-12 23:29:00,
2013-02-12 16:30:00,61.5,10.2,30.22,NNW,346,10.0,0.0,13,0.00,,,0.00,355,WeatherHawk,2013-02-12 23:30:00,
2013-02-12 16:31:00,61.5,10.2,30.22,NNW,345,11.0,0.0,13,0.00,,,0.00,354,WeatherHawk,2013-02-12 23:31:00,
2013-02-12 16:35:00,61.3,10.1,30.22,NNW,348,12.0,0.0,13,0.00,,,0.00,337,WeatherHawk,2013-02-12 23:35:00,
2013-02-12 16:36:00,61.3,8.3,30.22,North,350,10.0,0.0,12,0.00,,,0.00,333,WeatherHawk,2013-02-12 23:36:00,
2013-02-12 16:38:00,61.3,10.1,30.22,North,0,9.0,0.0,13,0.00,,,0.00,329,WeatherHawk,2013-02-12 23:38:00,
2013-02-12 16:43:00,61.3,8.3,30.22,North,354,8.0,14.0,12,0.00,,,0.00,309,WeatherHawk,2013-02-12 23:43:00,
2013-02-12 16:44:00,61.3,10.1,30.22,North,1,11.0,14.0,13,0.00,,,0.00,307,WeatherHawk,2013-02-12 23:44:00,
2013-02-12 16:48:00,61.3,11.8,30.22,North,357,7.0,-999.0,14,0.00,,,0.00,290,WeatherHawk,2013-02-12 23:48:00,
2013-02-12 16:49:00,61.5,10.2,30.22,North,354,9.0,0.0,13,0.00,,,0.00,287,WeatherHawk,2013-02-12 23:49:00,
2013-02-12 16:53:00,61.3,10.1,30.22,North,4,11.0,14.0,13,0.00,,,0.00,274,WeatherHawk,2013-02-12 23:53:00,
2013-02-12 16:55:00,61.3,8.3,30.22,North,3,10.0,14.0,12,0.00,,,0.00,265,WeatherHawk,2013-02-12 23:55:00,
2013-02-12 16:58:00,61.2,8.2,30.22,North,356,9.0,14.0,12,0.00,,,0.00,259,WeatherHawk,2013-02-12 23:58:00,
2013-02-12 17:03:00,61.3,10.1,30.22,North,352,11.0,0.0,13,0.00,,,0.00,238,WeatherHawk,2013-02-13 00:03:00,
2013-02-12 17:06:00,61.3,10.1,30.22,NNE,18,12.0,0.0,13,0.00,,,0.00,228,WeatherHawk,2013-02-13 00:06:00,
2013-02-12 17:08:00,61.2,9.9,30.22,North,1,11.0,-999.0,13,0.00,,,0.00,220,WeatherHawk,2013-02-13 00:08:00,
2013-02-12 17:12:00,61.2,9.9,30.22,North,3,10.0,0.0,13,0.00,,,0.00,205,WeatherHawk,2013-02-13 00:12:00,
2013-02-12 17:14:00,61.3,11.8,30.22,North,3,11.0,0.0,14,0.00,,,0.00,199,WeatherHawk,2013-02-13 00:14:00,
2013-02-12 17:16:00,61.2,9.9,30.22,North,5,11.0,0.0,13,0.00,,,0.00,192,WeatherHawk,2013-02-13 00:16:00,
2013-02-12 17:18:00,61.2,9.9,30.22,North,10,11.0,0.0,13,0.00,,,0.00,181,WeatherHawk,2013-02-13 00:18:00,
2013-02-12 17:19:00,61.2,9.9,30.22,North,11,9.0,0.0,13,0.00,,,0.00,182,WeatherHawk,2013-02-13 00:19:00,
2013-02-12 17:20:00,61.2,9.9,30.22,North,8,11.0,0.0,13,0.00,,,0.00,176,WeatherHawk,2013-02-13 00:20:00,
2013-02-12 17:23:00,61.0,9.8,30.22,North,6,10.0,0.0,13,0.00,,,0.00,165,WeatherHawk,2013-02-13 00:23:00,
2013-02-12 17:25:00,61.0,9.8,30.22,North,2,13.0,0.0,13,0.00,,,0.00,159,WeatherHawk,2013-02-13 00:25:00,
2013-02-12 17:28:00,60.8,11.3,30.22,NNE,13,8.0,0.0,14,0.00,,,0.00,152,WeatherHawk,2013-02-13 00:28:00,
2013-02-12 17:29:00,60.8,11.3,30.22,North,7,9.0,0.0,14,0.00,,,0.00,147,WeatherHawk,2013-02-13 00:29:00,
2013-02-12 17:30:00,60.8,11.3,30.21,North,10,9.0,0.0,14,0.00,,,0.00,143,WeatherHawk,2013-02-13 00:30:00,
2013-02-12 17:33:00,60.6,11.2,30.22,North,7,9.0,-999.0,14,0.00,,,0.00,135,WeatherHawk,2013-02-13 00:33:00,
2013-02-12 17:35:00,60.6,11.2,30.22,NNE,12,11.0,0.0,14,0.00,,,0.00,128,WeatherHawk,2013-02-13 00:35:00,
2013-02-12 17:36:00,60.4,11.0,30.22,NNE,12,11.0,0.0,14,0.00,,,0.00,122,WeatherHawk,2013-02-13 00:36:00,
2013-02-12 17:37:00,60.4,12.6,30.22,North,11,9.0,0.0,15,0.00,,,0.00,120,WeatherHawk,2013-02-13 00:37:00,
2013-02-12 17:41:00,60.3,12.4,30.21,North,7,12.0,0.0,15,0.00,,,0.00,111,WeatherHawk,2013-02-13 00:41:00,
2013-02-12 17:43:00,60.3,10.9,30.21,North,3,10.0,-999.0,14,0.00,,,0.00,107,WeatherHawk,2013-02-13 00:43:00,
2013-02-12 17:45:00,60.1,12.3,30.22,NNE,14,11.0,0.0,15,0.00,,,0.00,98,WeatherHawk,2013-02-13 00:45:00,
2013-02-12 17:48:00,59.9,12.2,30.22,NNE,13,11.0,0.0,15,0.00,,,0.00,89,WeatherHawk,2013-02-13 00:48:00,
2013-02-12 17:49:00,59.9,12.2,30.22,North,7,11.0,13.0,15,0.00,,,0.00,84,WeatherHawk,2013-02-13 00:49:00,
2013-02-12 17:50:00,59.9,12.2,30.22,North,8,8.0,13.0,15,0.00,,,0.00,83,WeatherHawk,2013-02-13 00:50:00,
2013-02-12 17:53:00,59.7,12.0,30.22,NNE,12,9.0,13.0,15,0.00,,,0.00,74,WeatherHawk,2013-02-13 00:53:00,
2013-02-12 17:54:00,59.7,12.0,30.22,North,7,10.0,13.0,15,0.00,,,0.00,71,WeatherHawk,2013-02-13 00:54:00,
2013-02-12 17:55:00,59.7,12.0,30.22,North,9,10.0,13.0,15,0.00,,,0.00,70,WeatherHawk,2013-02-13 00:55:00,
2013-02-12 17:58:00,59.5,13.3,30.22,North,9,10.0,13.0,16,0.00,,,0.00,64,WeatherHawk,2013-02-13 00:58:00,
2013-02-12 18:01:00,59.2,13.0,30.22,NNE,17,9.0,12.0,16,0.00,,,0.00,53,WeatherHawk,2013-02-13 01:01:00,
2013-02-12 18:03:00,59.0,12.9,30.22,North,8,9.0,12.0,16,0.00,,,0.00,49,WeatherHawk,2013-02-13 01:03:00,
2013-02-12 18:06:00,59.0,12.9,30.22,NNE,12,10.0,12.0,16,0.00,,,0.00,37,WeatherHawk,2013-02-13 01:06:00,
2013-02-12 18:08:00,58.8,14.1,30.22,NNE,12,10.0,0.0,17,0.00,,,0.00,33,WeatherHawk,2013-02-13 01:08:00,
2013-02-12 18:11:00,58.5,13.8,30.22,NNE,12,10.0,0.0,17,0.00,,,0.00,28,WeatherHawk,2013-02-13 01:11:00,
2013-02-12 18:13:00,58.1,14.8,30.22,North,11,9.0,0.0,18,0.00,,,0.00,24,WeatherHawk,2013-02-13 01:13:00,
2013-02-12 18:15:00,57.9,13.4,30.22,North,10,9.0,0.0,17,0.00,,,0.00,21,WeatherHawk,2013-02-13 01:15:00,
2013-02-12 18:17:00,57.9,13.4,30.22,North,8,9.0,0.0,17,0.00,,,0.00,15,WeatherHawk,2013-02-13 01:17:00,
2013-02-12 18:19:00,57.9,13.4,30.22,North,6,10.0,12.0,17,0.00,,,0.00,10,WeatherHawk,2013-02-13 01:19:00,
2013-02-12 18:20:00,57.9,13.4,30.22,North,9,9.0,12.0,17,0.00,,,0.00,9,WeatherHawk,2013-02-13 01:20:00,
2013-02-12 18:21:00,57.9,13.4,30.22,North,4,11.0,12.0,17,0.00,,,0.00,6,WeatherHawk,2013-02-13 01:21:00,
2013-02-12 18:22:00,57.7,13.2,30.22,North,10,10.0,12.0,17,0.00,,,0.00,5,WeatherHawk,2013-02-13 01:22:00,
2013-02-12 18:26:00,57.7,11.9,30.22,North,7,11.0,12.0,16,0.00,,,0.00,4,WeatherHawk,2013-02-13 01:26:00,
2013-02-12 18:28:00,57.7,11.9,30.22,North,6,9.0,0.0,16,0.00,,,0.00,3,WeatherHawk,2013-02-13 01:28:00,
2013-02-12 18:30:00,57.7,11.9,30.22,North,4,10.0,0.0,16,0.00,,,0.00,0,WeatherHawk,2013-02-13 01:30:00,
2013-02-12 18:33:00,57.7,11.9,30.22,North,4,10.0,0.0,16,0.00,,,0.00,2,WeatherHawk,2013-02-13 01:33:00,
2013-02-12 18:35:00,57.4,11.6,30.22,North,4,8.0,0.0,16,0.00,,,0.00,0,WeatherHawk,2013-02-13 01:35:00,
2013-02-12 18:36:00,57.4,12.9,30.22,North,7,8.0,0.0,17,0.00,,,0.00,0,WeatherHawk,2013-02-13 01:36:00,
2013-02-12 18:37:00,57.4,12.9,30.22,North,9,8.0,0.0,17,0.00,,,0.00,0,WeatherHawk,2013-02-13 01:37:00,
2013-02-12 18:41:00,57.2,12.8,30.22,North,6,9.0,0.0,17,0.00,,,0.00,0,WeatherHawk,2013-02-13 01:41:00,
2013-02-12 18:42:00,57.2,11.4,30.22,North,3,9.0,0.0,16,0.00,,,0.00,0,WeatherHawk,2013-02-13 01:42:00,
2013-02-12 18:43:00,57.2,11.4,30.22,North,3,9.0,0.0,16,0.00,,,0.00,0,WeatherHawk,2013-02-13 01:43:00,
2013-02-12 18:44:00,57.2,12.8,30.22,North,1,7.0,0.0,17,0.00,,,0.00,0,WeatherHawk,2013-02-13 01:44:00,
2013-02-12 18:47:00,57.0,12.7,30.22,North,0,6.0,0.0,17,0.00,,,0.00,0,WeatherHawk,2013-02-13 01:47:00,
2013-02-12 18:48:00,56.8,12.5,30.22,North,358,6.0,0.0,17,0.00,,,0.00,0,WeatherHawk,2013-02-13 01:48:00,
2013-02-12 18:50:00,56.8,12.5,30.22,North,354,8.0,10.0,17,0.00,,,0.00,0,WeatherHawk,2013-02-13 01:50:00,
2013-02-12 18:53:00,56.5,13.5,30.22,North,352,7.0,10.0,18,0.00,,,0.00,0,WeatherHawk,2013-02-13 01:53:00,
2013-02-12 18:58:00,55.8,14.1,30.22,North,354,7.0,-999.0,19,0.00,,,0.00,0,WeatherHawk,2013-02-13 01:58:00,
2013-02-12 19:03:00,55.2,14.9,30.22,North,2,5.0,0.0,20,0.00,,,0.00,0,WeatherHawk,2013-02-13 02:03:00,
2013-02-12 19:06:00,54.9,14.6,30.22,North,3,5.0,0.0,20,0.00,,,0.00,0,WeatherHawk,2013-02-13 02:06:00,
2013-02-12 19:08:00,54.9,15.7,30.22,North,7,5.0,-999.0,21,0.00,,,0.00,0,WeatherHawk,2013-02-13 02:08:00,
2013-02-12 19:13:00,54.7,15.5,30.22,North,6,5.0,-999.0,21,0.00,,,0.00,0,WeatherHawk,2013-02-13 02:13:00,
2013-02-12 19:14:00,54.5,15.4,30.22,North,5,5.0,0.0,21,0.00,,,0.00,0,WeatherHawk,2013-02-13 02:14:00,
2013-02-12 19:18:00,54.3,15.2,30.22,NNE,16,5.0,0.0,21,0.00,,,0.00,0,WeatherHawk,2013-02-13 02:18:00,
2013-02-12 19:19:00,54.3,14.1,30.22,NNE,18,5.0,0.0,20,0.00,,,0.00,0,WeatherHawk,2013-02-13 02:19:00,
2013-02-12 19:22:00,54.3,14.1,30.22,NNE,15,6.0,0.0,20,0.00,,,0.00,0,WeatherHawk,2013-02-13 02:22:00,
2013-02-12 19:23:00,54.3,14.1,30.22,NNE,15,6.0,0.0,20,0.00,,,0.00,0,WeatherHawk,2013-02-13 02:23:00,
2013-02-12 19:25:00,54.5,14.3,30.22,NNE,15,4.0,0.0,20,0.00,,,0.00,0,WeatherHawk,2013-02-13 02:25:00,
2013-02-12 19:28:00,54.5,14.3,30.22,North,8,5.0,0.0,20,0.00,,,0.00,0,WeatherHawk,2013-02-13 02:28:00,
2013-02-12 19:31:00,54.5,14.3,30.23,North,10,4.0,0.0,20,0.00,,,0.00,0,WeatherHawk,2013-02-13 02:31:00,
2013-02-12 19:33:00,54.3,15.2,30.23,North,10,3.0,-999.0,21,0.00,,,0.00,0,WeatherHawk,2013-02-13 02:33:00,
2013-02-12 19:36:00,54.0,14.9,30.23,North,5,4.0,0.0,21,0.00,,,0.00,0,WeatherHawk,2013-02-13 02:36:00,
2013-02-12 19:38:00,54.1,15.1,30.23,North,4,4.0,0.0,21,0.00,,,0.00,0,WeatherHawk,2013-02-13 02:38:00,
2013-02-12 19:42:00,54.1,15.1,30.23,North,2,5.0,0.0,21,0.00,,,0.00,0,WeatherHawk,2013-02-13 02:42:00,
2013-02-12 19:43:00,54.1,15.1,30.23,North,7,5.0,0.0,21,0.00,,,0.00,0,WeatherHawk,2013-02-13 02:43:00,
2013-02-12 19:44:00,54.1,15.1,30.23,North,5,5.0,0.0,21,0.00,,,0.00,0,WeatherHawk,2013-02-13 02:44:00,
2013-02-12 19:48:00,53.8,15.8,30.22,North,356,5.0,0.0,22,0.00,,,0.00,0,WeatherHawk,2013-02-13 02:48:00,
2013-02-12 19:51:00,53.4,15.5,30.22,North,359,5.0,0.0,22,0.00,,,0.00,0,WeatherHawk,2013-02-13 02:51:00,
2013-02-12 19:53:00,53.2,15.4,30.23,North,359,6.0,0.0,22,0.00,,,0.00,0,WeatherHawk,2013-02-13 02:53:00,
2013-02-12 19:55:00,53.1,16.3,30.23,North,359,4.0,0.0,23,0.00,,,0.00,0,WeatherHawk,2013-02-13 02:55:00,
2013-02-12 19:58:00,53.1,16.3,30.23,North,2,4.0,-999.0,23,0.00,,,0.00,0,WeatherHawk,2013-02-13 02:58:00,
2013-02-12 20:00:00,53.2,15.4,30.23,North,2,5.0,0.0,22,0.00,,,0.00,0,WeatherHawk,2013-02-13 03:00:00,
2013-02-12 20:02:00,53.4,15.5,30.23,North,6,5.0,0.0,22,0.00,,,0.00,0,WeatherHawk,2013-02-13 03:02:00,
2013-02-12 20:03:00,53.4,15.5,30.23,North,6,5.0,0.0,22,0.00,,,0.00,0,WeatherHawk,2013-02-13 03:03:00,
2013-02-12 20:05:00,53.4,14.5,30.23,North,5,6.0,0.0,21,0.00,,,0.00,0,WeatherHawk,2013-02-13 03:05:00,
2013-02-12 20:08:00,53.4,14.5,30.23,North,6,6.0,0.0,21,0.00,,,0.00,0,WeatherHawk,2013-02-13 03:08:00,
2013-02-12 20:12:00,53.8,14.8,30.23,North,4,5.0,6.0,21,0.00,,,0.00,0,WeatherHawk,2013-02-13 03:12:00,
2013-02-12 20:13:00,53.8,14.8,30.23,North,1,5.0,6.0,21,0.00,,,0.00,0,WeatherHawk,2013-02-13 03:13:00,
2013-02-12 20:18:00,53.6,13.5,30.23,North,9,5.0,6.0,20,0.00,,,0.00,0,WeatherHawk,2013-02-13 03:18:00,
2013-02-12 20:23:00,53.8,13.7,30.23,NNE,12,5.0,-999.0,20,0.00,,,0.00,0,WeatherHawk,2013-02-13 03:23:00,
2013-02-12 20:24:00,53.8,13.7,30.23,North,10,5.0,0.0,20,0.00,,,0.00,0,WeatherHawk,2013-02-13 03:24:00,
2013-02-12 20:25:00,53.8,13.7,30.23,North,9,5.0,0.0,20,0.00,,,0.00,0,WeatherHawk,2013-02-13 03:25:00,
2013-02-12 20:27:00,53.8,13.7,30.23,NNE,15,5.0,0.0,20,0.00,,,0.00,1,WeatherHawk,2013-02-13 03:27:00,
2013-02-12 20:28:00,53.8,13.7,30.23,NNE,15,5.0,0.0,20,0.00,,,0.00,1,WeatherHawk,2013-02-13 03:28:00,
2013-02-12 20:31:00,53.6,14.6,30.23,North,6,5.0,0.0,21,0.00,,,0.00,0,WeatherHawk,2013-02-13 03:31:00,
2013-02-12 20:33:00,53.6,13.5,30.23,North,4,6.0,0.0,20,0.00,,,0.00,0,WeatherHawk,2013-02-13 03:33:00,
2013-02-12 20:38:00,54.0,13.8,30.23,North,10,5.0,-999.0,20,0.00,,,0.00,0,WeatherHawk,2013-02-13 03:38:00,
2013-02-12 20:39:00,53.8,13.7,30.23,North,11,5.0,0.0,20,0.00,,,0.00,0,WeatherHawk,2013-02-13 03:39:00,
2013-02-12 20:43:00,53.6,14.6,30.24,NNE,21,4.0,0.0,21,0.00,,,0.00,0,WeatherHawk,2013-02-13 03:43:00,
2013-02-12 20:46:00,53.4,14.5,30.24,NNE,21,3.0,0.0,21,0.00,,,0.00,0,WeatherHawk,2013-02-13 03:46:00,
2013-02-12 20:48:00,53.4,14.5,30.24,NNE,26,4.0,-999.0,21,0.00,,,0.00,1,WeatherHawk,2013-02-13 03:48:00,
2013-02-12 20:50:00,53.2,14.3,30.24,NNE,25,4.0,0.0,21,0.00,,,0.00,0,WeatherHawk,2013-02-13 03:50:00,
2013-02-12 20:53:00,53.2,14.3,30.24,NNE,21,4.0,-999.0,21,0.00,,,0.00,0,WeatherHawk,2013-02-13 03:53:00,
2013-02-12 20:54:00,53.1,14.2,30.24,NNE,16,4.0,0.0,21,0.00,,,0.00,1,WeatherHawk,2013-02-13 03:54:00,
2013-02-12 20:56:00,53.1,14.2,30.24,North,8,4.0,0.0,21,0.00,,,0.00,0,WeatherHawk,2013-02-13 03:56:00,
2013-02-12 20:58:00,53.1,14.2,30.24,North,7,4.0,0.0,21,0.00,,,0.00,0,WeatherHawk,2013-02-13 03:58:00,
2013-02-12 21:00:00,53.2,14.3,30.24,North,5,5.0,0.0,21,0.00,,,0.00,0,WeatherHawk,2013-02-13 04:00:00,
2013-02-12 21:02:00,53.4,14.5,30.24,North,0,4.0,0.0,21,0.00,,,0.00,0,WeatherHawk,2013-02-13 04:02:00,
2013-02-12 21:03:00,53.4,14.5,30.24,North,0,4.0,0.0,21,0.00,,,0.00,0,WeatherHawk,2013-02-13 04:03:00,
2013-02-12 21:07:00,53.2,14.3,30.24,North,4,4.0,0.0,21,0.00,,,0.00,0,WeatherHawk,2013-02-13 04:07:00,
2013-02-12 21:08:00,53.2,15.4,30.24,North,6,4.0,0.0,22,0.00,,,0.00,0,WeatherHawk,2013-02-13 04:08:00,
2013-02-12 21:11:00,52.7,14.9,30.24,North,6,5.0,0.0,22,0.00,,,0.00,0,WeatherHawk,2013-02-13 04:11:00,
2013-02-12 21:13:00,52.7,14.9,30.24,North,6,5.0,-999.0,22,0.00,,,0.00,0,WeatherHawk,2013-02-13 04:13:00,
2013-02-12 21:14:00,52.7,14.9,30.24,North,0,5.0,0.0,22,0.00,,,0.00,1,WeatherHawk,2013-02-13 04:14:00,
2013-02-12 21:17:00,52.7,14.9,30.24,North,356,5.0,0.0,22,0.00,,,0.00,0,WeatherHawk,2013-02-13 04:17:00,
2013-02-12 21:20:00,52.7,14.9,30.24,NNW,347,5.0,0.0,22,0.00,,,0.00,0,WeatherHawk,2013-02-13 04:20:00,
2013-02-12 21:23:00,52.7,14.9,30.24,North,352,5.0,0.0,22,0.00,,,0.00,0,WeatherHawk,2013-02-13 04:23:00,
2013-02-12 21:25:00,52.3,15.7,30.24,North,0,4.0,0.0,23,0.00,,,0.00,0,WeatherHawk,2013-02-13 04:25:00,
2013-02-12 21:28:00,52.2,15.5,30.24,North,8,4.0,-999.0,23,0.00,,,0.00,0,WeatherHawk,2013-02-13 04:28:00,
2013-02-12 21:30:00,52.0,15.4,30.24,North,11,5.0,6.0,23,0.00,,,0.00,0,WeatherHawk,2013-02-13 04:30:00,
2013-02-12 21:31:00,52.0,15.4,30.24,NNE,19,5.0,6.0,23,0.00,,,0.00,0,WeatherHawk,2013-02-13 04:31:00,
2013-02-12 21:32:00,52.0,15.4,30.24,NNE,16,5.0,6.0,23,0.00,,,0.00,0,WeatherHawk,2013-02-13 04:32:00,
2013-02-12 21:34:00,52.2,15.5,30.24,North,11,5.0,6.0,23,0.00,,,0.00,0,WeatherHawk,2013-02-13 04:34:00,
2013-02-12 21:36:00,51.8,16.2,30.25,North,11,5.0,6.0,24,0.00,,,0.00,0,WeatherHawk,2013-02-13 04:36:00,
2013-02-12 21:38:00,51.8,16.2,30.25,North,11,5.0,6.0,24,0.00,,,0.00,0,WeatherHawk,2013-02-13 04:38:00,
2013-02-12 21:41:00,51.8,15.2,30.25,NNE,20,5.0,0.0,23,0.00,,,0.00,0,WeatherHawk,2013-02-13 04:41:00,
2013-02-12 21:42:00,51.8,15.2,30.25,NNE,23,5.0,0.0,23,0.00,,,0.00,0,WeatherHawk,2013-02-13 04:42:00,
2013-02-12 21:43:00,51.8,15.2,30.25,NNE,23,5.0,0.0,23,0.00,,,0.00,0,WeatherHawk,2013-02-13 04:43:00,
2013-02-12 21:47:00,52.2,15.5,30.25,North,358,4.0,0.0,23,0.00,,,0.00,0,WeatherHawk,2013-02-13 04:47:00,
2013-02-12 21:48:00,52.2,14.5,30.25,North,358,5.0,0.0,22,0.00,,,0.00,0,WeatherHawk,2013-02-13 04:48:00,
2013-02-12 21:52:00,52.3,15.7,30.25,North,0,4.0,5.0,23,0.00,,,0.00,0,WeatherHawk,2013-02-13 04:52:00,
2013-02-12 21:53:00,52.3,15.7,30.25,North,0,4.0,-999.0,23,0.00,,,0.00,0,WeatherHawk,2013-02-13 04:53:00,
2013-02-12 21:55:00,52.3,15.7,30.25,North,350,4.0,5.0,23,0.00,,,0.00,1,WeatherHawk,2013-02-13 04:55:00,
2013-02-12 21:57:00,52.2,15.5,30.25,NNW,348,4.0,5.0,23,0.00,,,0.00,0,WeatherHawk,2013-02-13 04:57:00,
2013-02-12 21:58:00,52.2,15.5,30.25,NNW,348,4.0,-999.0,23,0.00,,,0.00,0,WeatherHawk,2013-02-13 04:58:00,
2013-02-12 22:00:00,51.4,15.9,30.25,North,354,4.0,5.0,24,0.00,,,0.00,0,WeatherHawk,2013-02-13 05:00:00,
2013-02-12 22:02:00,51.3,15.7,30.25,North,358,3.0,5.0,24,0.00,,,0.00,0,WeatherHawk,2013-02-13 05:02:00,
2013-02-12 22:03:00,51.3,15.7,30.25,North,358,3.0,-999.0,24,0.00,,,0.00,0,WeatherHawk,2013-02-13 05:03:00,
2013-02-12 22:04:00,51.1,15.6,30.25,North,0,4.0,5.0,24,0.00,,,0.00,0,WeatherHawk,2013-02-13 05:04:00,
2013-02-12 22:06:00,51.1,15.6,30.25,North,1,4.0,5.0,24,0.00,,,0.00,0,WeatherHawk,2013-02-13 05:06:00,
2013-02-12 22:08:00,51.3,15.7,30.25,North,358,5.0,-999.0,24,0.00,,,0.00,0,WeatherHawk,2013-02-13 05:08:00,
2013-02-12 22:09:00,51.4,15.9,30.25,North,349,5.0,0.0,24,0.00,,,0.00,0,WeatherHawk,2013-02-13 05:09:00,
2013-02-12 22:10:00,51.6,15.0,30.25,North,349,7.0,0.0,23,0.00,,,0.00,0,WeatherHawk,2013-02-13 05:10:00,
2013-02-12 22:13:00,52.3,14.6,30.25,North,349,6.0,0.0,22,0.00,,,0.00,0,WeatherHawk,2013-02-13 05:13:00,
2013-02-12 22:14:00,52.5,14.8,30.25,North,352,6.0,0.0,22,0.00,,,0.00,0,WeatherHawk,2013-02-13 05:14:00,
2013-02-12 22:16:00,52.3,14.6,30.24,North,349,6.0,0.0,22,0.00,,,0.00,0,WeatherHawk,2013-02-13 05:16:00,
2013-02-12 22:18:00,52.3,15.7,30.24,NNW,348,5.0,0.0,23,0.00,,,0.00,0,WeatherHawk,2013-02-13 05:18:00,
2013-02-12 22:20:00,52.2,15.5,30.24,NNW,345,5.0,0.0,23,0.00,,,0.00,0,WeatherHawk,2013-02-13 05:20:00,
2013-02-12 22:23:00,52.0,16.3,30.24,WNW,287,6.0,0.0,24,0.00,,,0.00,0,WeatherHawk,2013-02-13 05:23:00,
2013-02-12 22:24:00,50.9,17.3,30.24,NW,323,4.0,0.0,26,0.00,,,0.00,0,WeatherHawk,2013-02-13 05:24:00,
2013-02-12 22:26:00,50.4,17.7,30.25,NNW,336,4.0,0.0,27,0.00,,,0.00,0,WeatherHawk,2013-02-13 05:26:00,
2013-02-12 22:27:00,50.4,17.7,30.25,NNW,336,4.0,-999.0,27,0.00,,,0.00,0,WeatherHawk,2013-02-13 05:27:00,
2013-02-12 22:32:00,49.6,17.9,30.25,East,80,5.0,0.0,28,0.00,,,0.00,0,WeatherHawk,2013-02-13 05:32:00,
2013-02-12 22:33:00,48.9,18.1,30.25,East,89,5.0,0.0,29,0.00,,,0.00,0,WeatherHawk,2013-02-13 05:33:00,
2013-02-12 22:35:00,48.2,19.0,30.25,East,94,5.0,0.0,31,0.00,,,0.00,0,WeatherHawk,2013-02-13 05:35:00,
2013-02-12 22:37:00,47.8,19.4,30.25,East,94,4.0,0.0,32,0.00,,,0.00,0,WeatherHawk,2013-02-13 05:37:00,
2013-02-12 22:39:00,47.7,19.3,30.25,East,95,3.0,0.0,32,0.00,,,0.00,0,WeatherHawk,2013-02-13 05:39:00,
2013-02-12 22:42:00,47.3,20.4,30.25,East,91,5.0,-999.0,34,0.00,,,0.00,0,WeatherHawk,2013-02-13 05:42:00,
2013-02-12 22:43:00,47.3,20.4,30.25,East,91,5.0,0.0,34,0.00,,,0.00,0,WeatherHawk,2013-02-13 05:43:00,
2013-02-12 22:47:00,46.2,21.4,30.25,East,89,4.0,0.0,37,0.00,,,0.00,0,WeatherHawk,2013-02-13 05:47:00,
2013-02-12 22:49:00,45.9,21.7,30.25,East,84,5.0,0.0,38,0.00,,,0.00,0,WeatherHawk,2013-02-13 05:49:00,
2013-02-12 22:52:00,45.7,21.5,30.25,East,84,4.0,0.0,38,0.00,,,0.00,0,WeatherHawk,2013-02-13 05:52:00,
2013-02-12 22:54:00,45.3,21.2,30.25,East,89,6.0,0.0,38,0.00,,,0.00,0,WeatherHawk,2013-02-13 05:54:00,
2013-02-12 22:55:00,45.3,21.2,30.25,East,91,5.0,0.0,38,0.00,,,0.00,0,WeatherHawk,2013-02-13 05:55:00,
2013-02-12 22:57:00,45.5,20.8,30.25,East,89,5.0,0.0,37,0.00,,,0.00,0,WeatherHawk,2013-02-13 05:57:00,
2013-02-12 23:02:00,45.9,21.1,30.24,East,85,5.0,0.0,37,0.00,,,0.00,0,WeatherHawk,2013-02-13 06:02:00,
2013-02-12 23:03:00,45.9,20.4,30.24,East,87,4.0,0.0,36,0.00,,,0.00,1,WeatherHawk,2013-02-13 06:03:00,
2013-02-12 23:07:00,46.2,20.1,30.24,East,82,5.0,0.0,35,0.00,,,0.00,0,WeatherHawk,2013-02-13 06:07:00,
2013-02-12 23:08:00,46.4,19.6,30.24,East,80,4.0,-999.0,34,0.00,,,0.00,1,WeatherHawk,2013-02-13 06:08:00,
2013-02-12 23:12:00,47.1,19.5,30.24,ENE,70,4.0,0.0,33,0.00,,,0.00,0,WeatherHawk,2013-02-13 06:12:00,
2013-02-12 23:13:00,47.3,19.0,30.24,ENE,68,4.0,0.0,32,0.00,,,0.00,0,WeatherHawk,2013-02-13 06:13:00,
2013-02-12 23:16:00,48.0,18.8,30.24,ENE,60,4.0,0.0,31,0.00,,,0.00,0,WeatherHawk,2013-02-13 06:16:00,
2013-02-12 23:20:00,48.7,17.9,30.24,NE,55,4.0,0.0,29,0.00,,,0.00,0,WeatherHawk,2013-02-13 06:20:00,
2013-02-12 23:21:00,49.1,18.2,30.24,NE,51,3.0,0.0,29,0.00,,,0.00,0,WeatherHawk,2013-02-13 06:21:00,
2013-02-12 23:22:00,49.3,17.6,30.24,NE,46,3.0,0.0,28,0.00,,,0.00,0,WeatherHawk,2013-02-13 06:22:00,
2013-02-12 23:24:00,49.6,17.0,30.24,NE,40,3.0,0.0,27,0.00,,,0.00,0,WeatherHawk,2013-02-13 06:24:00,
2013-02-12 23:27:00,49.6,17.0,30.24,NNE,32,3.0,-999.0,27,0.00,,,0.00,0,WeatherHawk,2013-02-13 06:27:00,
2013-02-12 23:30:00,49.8,17.2,30.24,NNE,30,3.0,0.0,27,0.00,,,0.00,0,WeatherHawk,2013-02-13 06:30:00,
2013-02-12 23:33:00,49.6,17.9,30.24,NNE,32,2.0,0.0,28,0.00,,,0.00,0,WeatherHawk,2013-02-13 06:33:00,
2013-02-12 23:36:00,49.5,17.7,30.24,NNE,33,1.0,0.0,28,0.00,,,0.00,0,WeatherHawk,2013-02-13 06:36:00,
2013-02-12 23:37:00,49.3,17.6,30.24,NNE,33,1.0,-999.0,28,0.00,,,0.00,0,WeatherHawk,2013-02-13 06:37:00,
2013-02-12 23:38:00,49.3,17.6,30.24,NNE,24,1.0,0.0,28,0.00,,,0.00,0,WeatherHawk,2013-02-13 06:38:00,
2013-02-12 23:42:00,49.5,16.0,30.24,North,1,2.0,0.0,26,0.00,,,0.00,0,WeatherHawk,2013-02-13 06:42:00,
2013-02-12 23:45:00,50.0,15.6,30.24,NNW,333,2.0,0.0,25,0.00,,,0.00,1,WeatherHawk,2013-02-13 06:45:00,
2013-02-12 23:47:00,50.4,15.0,30.24,NNW,335,3.0,0.0,24,0.00,,,0.00,0,WeatherHawk,2013-02-13 06:47:00,
2013-02-12 23:49:00,50.7,15.3,30.24,North,351,2.0,0.0,24,0.00,,,0.00,0,WeatherHawk,2013-02-13 06:49:00,
2013-02-12 23:50:00,50.7,15.3,30.24,North,5,2.0,0.0,24,0.00,,,0.00,0,WeatherHawk,2013-02-13 06:50:00,
2013-02-12 23:52:00,50.9,19.0,30.24,East,94,6.0,0.0,28,0.00,,,0.00,0,WeatherHawk,2013-02-13 06:52:00,
2013-02-12 23:57:00,47.7,20.0,30.24,East,93,5.0,-999.0,33,0.00,,,0.00,0,WeatherHawk,2013-02-13 06:57:00,
2013-02-12 23:58:00,47.1,18.8,30.24,East,91,6.0,0.0,32,0.00,,,0.00,0,WeatherHawk,2013-02-13 06:58:00,